Wetterdaten: Dienstag, 19.07.2016
Datum Zeit Temp. A. Feuchte A. Luftdruck Regen Wind Richtung Richtung Sonnenschein ET UV Solar Taupunkt Windchill Windben Empfang
19.07.2016 00:00 18,1 C 90 % 1019,6 hPa 0,0 l/m 5,7 km/h (1 Bft) S 177 0 min 0,000 mm 0,0 UV-I 0 W/m 16,4 C 18,1 C 8,0 km/h (2 Bft) 100,00 %
19.07.2016 00:02 18,0 C 90 % 1019,6 hPa 0,0 l/m 5,0 km/h (1 Bft) S-SW 209 0 min 0,000 mm 0,0 UV-I 0 W/m 16,3 C 18,0 C 6,4 km/h (2 Bft) 100,00 %
19.07.2016 00:04 18,0 C 90 % 1019,6 hPa 0,0 l/m 3,9 km/h (1 Bft) S-SW 198 0 min 0,000 mm 0,0 UV-I 0 W/m 16,3 C 18,0 C 6,4 km/h (2 Bft) 100,00 %
19.07.2016 00:06 17,9 C 90 % 1019,6 hPa 0,0 l/m 3,8 km/h (1 Bft) S-SW 197 0 min 0,000 mm 0,0 UV-I 0 W/m 16,2 C 17,9 C 6,4 km/h (2 Bft) 100,00 %
19.07.2016 00:08 17,9 C 91 % 1019,6 hPa 0,0 l/m 3,3 km/h (1 Bft) S-SW 196 0 min 0,000 mm 0,0 UV-I 0 W/m 16,4 C 17,9 C 6,4 km/h (2 Bft) 98,00 %
19.07.2016 00:10 17,9 C 90 % 1019,6 hPa 0,0 l/m 2,2 km/h (1 Bft) S-SW 196 0 min 0,000 mm 0,0 UV-I 0 W/m 16,2 C 17,9 C 3,2 km/h (1 Bft) 97,87 %
19.07.2016 00:12 17,9 C 90 % 1019,6 hPa 0,0 l/m 1,7 km/h (1 Bft) S-SW 196 0 min 0,000 mm 0,0 UV-I 0 W/m 16,2 C 17,9 C 3,2 km/h (1 Bft) 97,87 %
19.07.2016 00:14 17,8 C 91 % 1019,6 hPa 0,0 l/m 2,0 km/h (1 Bft) S 190 0 min 0,000 mm 0,0 UV-I 0 W/m 16,3 C 17,8 C 3,2 km/h (1 Bft) 100,00 %
19.07.2016 00:16 17,7 C 91 % 1019,6 hPa 0,0 l/m 3,3 km/h (1 Bft) S 186 0 min 0,000 mm 0,0 UV-I 0 W/m 16,2 C 17,7 C 6,4 km/h (2 Bft) 98,00 %
19.07.2016 00:18 17,7 C 91 % 1019,7 hPa 0,0 l/m 4,5 km/h (1 Bft) S 186 0 min 0,000 mm 0,0 UV-I 0 W/m 16,2 C 17,7 C 6,4 km/h (2 Bft) 100,00 %
19.07.2016 00:20 17,7 C 91 % 1019,7 hPa 0,0 l/m 3,8 km/h (1 Bft) S 182 0 min 0,000 mm 0,0 UV-I 0 W/m 16,2 C 17,7 C 4,8 km/h (1 Bft) 97,87 %
19.07.2016 00:22 17,7 C 91 % 1019,7 hPa 0,0 l/m 3,3 km/h (1 Bft) S 182 0 min 0,000 mm 0,0 UV-I 0 W/m 16,2 C 17,7 C 4,8 km/h (1 Bft) 95,74 %
19.07.2016 00:24 17,7 C 91 % 1019,7 hPa 0,0 l/m 4,3 km/h (1 Bft) SW 215 0 min 0,000 mm 0,0 UV-I 0 W/m 16,2 C 17,7 C 6,4 km/h (2 Bft) 97,87 %
19.07.2016 00:26 17,6 C 91 % 1019,6 hPa 0,0 l/m 4,8 km/h (1 Bft) S-SW 202 0 min 0,000 mm 0,0 UV-I 0 W/m 16,1 C 17,6 C 8,0 km/h (2 Bft) 94,29 %
19.07.2016 00:28 17,6 C 91 % 1019,7 hPa 0,0 l/m 4,3 km/h (1 Bft) S-SW 198 0 min 0,000 mm 0,0 UV-I 0 W/m 16,1 C 17,6 C 4,8 km/h (1 Bft) 95,74 %
19.07.2016 00:30 17,5 C 92 % 1019,7 hPa 0,0 l/m 4,2 km/h (1 Bft) S 177 0 min 0,000 mm 0,0 UV-I 0 W/m 16,2 C 17,5 C 6,4 km/h (2 Bft) 95,74 %
19.07.2016 00:32 17,5 C 92 % 1019,7 hPa 0,0 l/m 3,4 km/h (1 Bft) S 177 0 min 0,000 mm 0,0 UV-I 0 W/m 16,2 C 17,5 C 4,8 km/h (1 Bft) 97,87 %
19.07.2016 00:34 17,5 C 92 % 1019,7 hPa 0,0 l/m 3,5 km/h (1 Bft) S 178 0 min 0,000 mm 0,0 UV-I 0 W/m 16,2 C 17,5 C 4,8 km/h (1 Bft) 96,00 %
19.07.2016 00:36 17,5 C 92 % 1019,7 hPa 0,0 l/m 3,8 km/h (1 Bft) S 189 0 min 0,000 mm 0,0 UV-I 0 W/m 16,2 C 17,5 C 6,4 km/h (2 Bft) 97,87 %
19.07.2016 00:38 17,4 C 92 % 1019,7 hPa 0,0 l/m 3,5 km/h (1 Bft) S-SW 205 0 min 0,000 mm 0,0 UV-I 0 W/m 16,1 C 17,4 C 4,8 km/h (1 Bft) 97,87 %
19.07.2016 00:40 17,4 C 92 % 1019,7 hPa 0,0 l/m 3,6 km/h (1 Bft) S-SW 211 0 min 0,000 mm 0,0 UV-I 0 W/m 16,1 C 17,4 C 4,8 km/h (1 Bft) 97,87 %
19.07.2016 00:42 17,3 C 92 % 1019,7 hPa 0,0 l/m 3,9 km/h (1 Bft) S 189 0 min 0,000 mm 0,0 UV-I 0 W/m 16,0 C 17,3 C 6,4 km/h (2 Bft) 97,87 %
19.07.2016 00:44 17,3 C 92 % 1019,7 hPa 0,0 l/m 3,7 km/h (1 Bft) S-SW 196 0 min 0,000 mm 0,0 UV-I 0 W/m 16,0 C 17,3 C 6,4 km/h (2 Bft) 97,87 %
19.07.2016 00:46 17,2 C 92 % 1019,7 hPa 0,0 l/m 3,3 km/h (1 Bft) S-SW 192 0 min 0,000 mm 0,0 UV-I 0 W/m 15,9 C 17,2 C 4,8 km/h (1 Bft) 97,87 %
19.07.2016 00:48 17,2 C 93 % 1019,7 hPa 0,0 l/m 3,7 km/h (1 Bft) S-SW 192 0 min 0,000 mm 0,0 UV-I 0 W/m 16,1 C 17,2 C 6,4 km/h (2 Bft) 97,87 %
19.07.2016 00:50 17,3 C 93 % 1019,7 hPa 0,0 l/m 3,6 km/h (1 Bft) S 176 0 min 0,000 mm 0,0 UV-I 0 W/m 16,2 C 17,3 C 6,4 km/h (2 Bft) 95,74 %
19.07.2016 00:52 17,3 C 93 % 1019,6 hPa 0,0 l/m 4,5 km/h (1 Bft) S 179 0 min 0,000 mm 0,0 UV-I 0 W/m 16,2 C 17,3 C 6,4 km/h (2 Bft) 95,83 %
19.07.2016 00:54 17,3 C 93 % 1019,7 hPa 0,0 l/m 3,9 km/h (1 Bft) S 179 0 min 0,000 mm 0,0 UV-I 0 W/m 16,2 C 17,3 C 4,8 km/h (1 Bft) 100,00 %
19.07.2016 00:56 17,3 C 93 % 1019,6 hPa 0,0 l/m 4,2 km/h (1 Bft) S 182 0 min 0,000 mm 0,0 UV-I 0 W/m 16,2 C 17,3 C 6,4 km/h (2 Bft) 95,74 %
19.07.2016 00:58 17,3 C 93 % 1019,7 hPa 0,0 l/m 5,3 km/h (1 Bft) S 183 0 min 0,000 mm 0,0 UV-I 0 W/m 16,2 C 17,3 C 6,4 km/h (2 Bft) 97,87 %
19.07.2016 01:00 17,3 C 92 % 1019,6 hPa 0,0 l/m 3,6 km/h (1 Bft) S 184 0 min 0,000 mm 0,0 UV-I 0 W/m 16,0 C 17,3 C 4,8 km/h (1 Bft) 100,00 %
19.07.2016 01:02 17,3 C 93 % 1019,7 hPa 0,0 l/m 3,4 km/h (1 Bft) S 184 0 min 0,000 mm 0,0 UV-I 0 W/m 16,2 C 17,3 C 6,4 km/h (2 Bft) 97,92 %
19.07.2016 01:04 17,3 C 92 % 1019,6 hPa 0,0 l/m 3,6 km/h (1 Bft) S 186 0 min 0,000 mm 0,0 UV-I 0 W/m 16,0 C 17,3 C 6,4 km/h (2 Bft) 100,00 %
19.07.2016 01:06 17,2 C 92 % 1019,7 hPa 0,0 l/m 4,3 km/h (1 Bft) S-SW 192 0 min 0,000 mm 0,0 UV-I 0 W/m 15,9 C 17,2 C 6,4 km/h (2 Bft) 97,87 %
19.07.2016 01:08 17,2 C 93 % 1019,7 hPa 0,0 l/m 4,0 km/h (1 Bft) S-SW 213 0 min 0,000 mm 0,0 UV-I 0 W/m 16,1 C 17,2 C 4,8 km/h (1 Bft) 100,00 %
19.07.2016 01:10 17,2 C 92 % 1019,7 hPa 0,0 l/m 4,5 km/h (1 Bft) S-SW 213 0 min 0,000 mm 0,0 UV-I 0 W/m 15,9 C 17,2 C 6,4 km/h (2 Bft) 100,00 %
19.07.2016 01:12 17,1 C 92 % 1019,6 hPa 0,0 l/m 5,2 km/h (1 Bft) S 178 0 min 0,000 mm 0,0 UV-I 0 W/m 15,8 C 17,1 C 8,0 km/h (2 Bft) 97,87 %
19.07.2016 01:14 17,1 C 93 % 1019,7 hPa 0,0 l/m 4,8 km/h (1 Bft) S 185 0 min 0,000 mm 0,0 UV-I 0 W/m 16,0 C 17,1 C 6,4 km/h (2 Bft) 100,00 %
19.07.2016 01:16 17,2 C 93 % 1019,7 hPa 0,0 l/m 4,2 km/h (1 Bft) S-SW 204 0 min 0,000 mm 0,0 UV-I 0 W/m 16,1 C 17,2 C 6,4 km/h (2 Bft) 100,00 %
19.07.2016 01:18 17,2 C 93 % 1019,7 hPa 0,0 l/m 3,8 km/h (1 Bft) S 185 0 min 0,000 mm 0,0 UV-I 0 W/m 16,1 C 17,2 C 6,4 km/h (2 Bft) 100,00 %
19.07.2016 01:20 17,2 C 93 % 1019,7 hPa 0,0 l/m 2,4 km/h (1 Bft) S 185 0 min 0,000 mm 0,0 UV-I 0 W/m 16,1 C 17,2 C 4,8 km/h (1 Bft) 97,87 %
19.07.2016 01:22 17,2 C 92 % 1019,7 hPa 0,0 l/m 1,8 km/h (1 Bft) S 185 0 min 0,000 mm 0,0 UV-I 0 W/m 15,9 C 17,2 C 4,8 km/h (1 Bft) 100,00 %
19.07.2016 01:24 17,2 C 92 % 1019,7 hPa 0,0 l/m 1,3 km/h (1 Bft) S 185 0 min 0,000 mm 0,0 UV-I 0 W/m 15,9 C 17,2 C 3,2 km/h (1 Bft) 97,87 %
19.07.2016 01:26 17,1 C 93 % 1019,7 hPa 0,0 l/m 1,6 km/h (1 Bft) S 185 0 min 0,000 mm 0,0 UV-I 0 W/m 16,0 C 17,1 C 3,2 km/h (1 Bft) 100,00 %
19.07.2016 01:28 17,1 C 92 % 1019,7 hPa 0,0 l/m 0,2 km/h (0 Bft) S 185 0 min 0,000 mm 0,0 UV-I 0 W/m 15,8 C 17,1 C 1,6 km/h (1 Bft) 100,00 %
19.07.2016 01:30 17,1 C 93 % 1019,7 hPa 0,0 l/m 0,3 km/h (0 Bft) S 185 0 min 0,000 mm 0,0 UV-I 0 W/m 16,0 C 17,1 C 1,6 km/h (1 Bft) 97,87 %
19.07.2016 01:32 17,1 C 93 % 1019,7 hPa 0,0 l/m 0,1 km/h (0 Bft) S 185 0 min 0,000 mm 0,0 UV-I 0 W/m 16,0 C 17,1 C 1,6 km/h (1 Bft) 100,00 %
19.07.2016 01:34 17,1 C 93 % 1019,8 hPa 0,0 l/m 0,3 km/h (0 Bft) S 185 0 min 0,000 mm 0,0 UV-I 0 W/m 16,0 C 17,1 C 1,6 km/h (1 Bft) 100,00 %
19.07.2016 01:36 17,1 C 93 % 1019,8 hPa 0,0 l/m 0,2 km/h (0 Bft) S 185 0 min 0,000 mm 0,0 UV-I 0 W/m 16,0 C 17,1 C 1,6 km/h (1 Bft) 100,00 %
19.07.2016 01:38 17,1 C 93 % 1019,8 hPa 0,0 l/m 0,0 km/h (0 Bft) S 185 0 min 0,000 mm 0,0 UV-I 0 W/m 16,0 C 17,1 C 0,0 km/h (0 Bft) 100,00 %
19.07.2016 01:40 17,2 C 93 % 1019,9 hPa 0,0 l/m 0,7 km/h (0 Bft) S 185 0 min 0,000 mm 0,0 UV-I 0 W/m 16,1 C 17,2 C 3,2 km/h (1 Bft) 97,87 %
19.07.2016 01:42 17,2 C 93 % 1019,9 hPa 0,0 l/m 3,5 km/h (1 Bft) S 185 0 min 0,000 mm 0,0 UV-I 0 W/m 16,1 C 17,2 C 4,8 km/h (1 Bft) 100,00 %
19.07.2016 01:44 17,2 C 93 % 1019,9 hPa 0,0 l/m 2,8 km/h (1 Bft) S 185 0 min 0,000 mm 0,0 UV-I 0 W/m 16,1 C 17,2 C 4,8 km/h (1 Bft) 100,00 %
19.07.2016 01:46 17,2 C 92 % 1019,8 hPa 0,0 l/m 4,0 km/h (1 Bft) S-SW 192 0 min 0,000 mm 0,0 UV-I 0 W/m 15,9 C 17,2 C 4,8 km/h (1 Bft) 97,87 %
19.07.2016 01:48 17,1 C 92 % 1019,8 hPa 0,0 l/m 3,9 km/h (1 Bft) S-SW 192 0 min 0,000 mm 0,0 UV-I 0 W/m 15,8 C 17,1 C 4,8 km/h (1 Bft) 95,74 %
19.07.2016 01:50 17,1 C 92 % 1019,9 hPa 0,0 l/m 3,7 km/h (1 Bft) S-SW 192 0 min 0,000 mm 0,0 UV-I 0 W/m 15,8 C 17,1 C 4,8 km/h (1 Bft) 100,00 %
19.07.2016 01:52 17,1 C 92 % 1019,8 hPa 0,0 l/m 3,4 km/h (1 Bft) S-SW 192 0 min 0,000 mm 0,0 UV-I 0 W/m 15,8 C 17,1 C 4,8 km/h (1 Bft) 97,87 %
19.07.2016 01:54 17,0 C 93 % 1019,9 hPa 0,0 l/m 4,0 km/h (1 Bft) S-SW 192 0 min 0,000 mm 0,0 UV-I 0 W/m 15,9 C 17,0 C 4,8 km/h (1 Bft) 100,00 %
19.07.2016 01:56 16,9 C 93 % 1019,8 hPa 0,0 l/m 4,5 km/h (1 Bft) S 181 0 min 0,000 mm 0,0 UV-I 0 W/m 15,8 C 16,9 C 6,4 km/h (2 Bft) 97,83 %
19.07.2016 01:58 16,9 C 93 % 1019,8 hPa 0,0 l/m 4,9 km/h (1 Bft) S-SW 205 0 min 0,000 mm 0,0 UV-I 0 W/m 15,8 C 16,9 C 8,0 km/h (2 Bft) 97,87 %
19.07.2016 02:00 16,9 C 93 % 1019,8 hPa 0,0 l/m 4,3 km/h (1 Bft) S-SW 209 0 min 0,000 mm 0,0 UV-I 0 W/m 15,8 C 16,9 C 6,4 km/h (2 Bft) 100,00 %
19.07.2016 02:02 16,8 C 93 % 1019,9 hPa 0,0 l/m 2,9 km/h (1 Bft) S-SW 202 0 min 0,000 mm 0,0 UV-I 0 W/m 15,7 C 16,8 C 4,8 km/h (1 Bft) 100,00 %
19.07.2016 02:04 16,8 C 93 % 1019,9 hPa 0,0 l/m 2,5 km/h (1 Bft) S-SW 202 0 min 0,000 mm 0,0 UV-I 0 W/m 15,7 C 16,8 C 4,8 km/h (1 Bft) 97,87 %
19.07.2016 02:06 16,8 C 93 % 1019,9 hPa 0,0 l/m 3,8 km/h (1 Bft) S-SW 201 0 min 0,000 mm 0,0 UV-I 0 W/m 15,7 C 16,8 C 4,8 km/h (1 Bft) 100,00 %
19.07.2016 02:08 16,8 C 93 % 1019,9 hPa 0,0 l/m 4,1 km/h (1 Bft) S-SW 201 0 min 0,000 mm 0,0 UV-I 0 W/m 15,7 C 16,8 C 4,8 km/h (1 Bft) 97,92 %
19.07.2016 02:10 16,9 C 93 % 1019,9 hPa 0,0 l/m 3,0 km/h (1 Bft) S-SW 201 0 min 0,000 mm 0,0 UV-I 0 W/m 15,8 C 16,9 C 4,8 km/h (1 Bft) 97,87 %
19.07.2016 02:12 16,9 C 93 % 1019,9 hPa 0,0 l/m 3,5 km/h (1 Bft) S-SW 201 0 min 0,000 mm 0,0 UV-I 0 W/m 15,8 C 16,9 C 4,8 km/h (1 Bft) 100,00 %
19.07.2016 02:14 16,9 C 93 % 1019,9 hPa 0,0 l/m 3,2 km/h (1 Bft) S-SW 201 0 min 0,000 mm 0,0 UV-I 0 W/m 15,8 C 16,9 C 4,8 km/h (1 Bft) 100,00 %
19.07.2016 02:16 16,9 C 93 % 1019,9 hPa 0,0 l/m 2,9 km/h (1 Bft) S-SW 201 0 min 0,000 mm 0,0 UV-I 0 W/m 15,8 C 16,9 C 4,8 km/h (1 Bft) 100,00 %
19.07.2016 02:18 16,9 C 93 % 1019,9 hPa 0,0 l/m 3,4 km/h (1 Bft) S-SW 201 0 min 0,000 mm 0,0 UV-I 0 W/m 15,8 C 16,9 C 4,8 km/h (1 Bft) 100,00 %
19.07.2016 02:20 16,8 C 93 % 1019,9 hPa 0,0 l/m 2,8 km/h (1 Bft) S-SW 201 0 min 0,000 mm 0,0 UV-I 0 W/m 15,7 C 16,8 C 3,2 km/h (1 Bft) 97,87 %
19.07.2016 02:22 16,8 C 93 % 1019,9 hPa 0,0 l/m 2,3 km/h (1 Bft) S-SW 201 0 min 0,000 mm 0,0 UV-I 0 W/m 15,7 C 16,8 C 3,2 km/h (1 Bft) 97,87 %
19.07.2016 02:24 16,8 C 93 % 1019,9 hPa 0,0 l/m 3,1 km/h (1 Bft) S-SW 201 0 min 0,000 mm 0,0 UV-I 0 W/m 15,7 C 16,8 C 4,8 km/h (1 Bft) 93,62 %
19.07.2016 02:26 16,8 C 93 % 1019,9 hPa 0,0 l/m 2,7 km/h (1 Bft) S-SW 201 0 min 0,000 mm 0,0 UV-I 0 W/m 15,7 C 16,8 C 4,8 km/h (1 Bft) 97,87 %
19.07.2016 02:28 16,7 C 94 % 1019,9 hPa 0,0 l/m 2,3 km/h (1 Bft) S-SW 201 0 min 0,000 mm 0,0 UV-I 0 W/m 15,7 C 16,7 C 3,2 km/h (1 Bft) 98,00 %
19.07.2016 02:30 16,7 C 94 % 1019,9 hPa 0,0 l/m 2,9 km/h (1 Bft) S-SW 201 0 min 0,000 mm 0,0 UV-I 0 W/m 15,7 C 16,7 C 4,8 km/h (1 Bft) 97,14 %
19.07.2016 02:32 16,7 C 94 % 1019,9 hPa 0,0 l/m 3,4 km/h (1 Bft) S-SW 201 0 min 0,000 mm 0,0 UV-I 0 W/m 15,7 C 16,7 C 4,8 km/h (1 Bft) 93,75 %
19.07.2016 02:34 16,7 C 94 % 1019,9 hPa 0,0 l/m 3,8 km/h (1 Bft) S-SW 201 0 min 0,000 mm 0,0 UV-I 0 W/m 15,7 C 16,7 C 4,8 km/h (1 Bft) 97,87 %
19.07.2016 02:36 16,7 C 94 % 1019,9 hPa 0,0 l/m 4,0 km/h (1 Bft) S-SW 202 0 min 0,000 mm 0,0 UV-I 0 W/m 15,7 C 16,7 C 4,8 km/h (1 Bft) 95,74 %
19.07.2016 02:38 16,7 C 94 % 1019,9 hPa 0,0 l/m 3,8 km/h (1 Bft) S-SW 196 0 min 0,000 mm 0,0 UV-I 0 W/m 15,7 C 16,7 C 6,4 km/h (2 Bft) 97,87 %
19.07.2016 02:40 16,7 C 94 % 1019,9 hPa 0,0 l/m 2,9 km/h (1 Bft) S-SW 196 0 min 0,000 mm 0,0 UV-I 0 W/m 15,7 C 16,7 C 4,8 km/h (1 Bft) 97,87 %
19.07.2016 02:42 16,7 C 94 % 1019,9 hPa 0,0 l/m 3,0 km/h (1 Bft) S-SW 196 0 min 0,000 mm 0,0 UV-I 0 W/m 15,7 C 16,7 C 4,8 km/h (1 Bft) 97,92 %
19.07.2016 02:44 16,7 C 93 % 1019,9 hPa 0,0 l/m 2,3 km/h (1 Bft) S-SW 196 0 min 0,000 mm 0,0 UV-I 0 W/m 15,6 C 16,7 C 3,2 km/h (1 Bft) 97,87 %
19.07.2016 02:46 16,6 C 94 % 1019,9 hPa 0,0 l/m 3,1 km/h (1 Bft) S-SW 196 0 min 0,000 mm 0,0 UV-I 0 W/m 15,6 C 16,6 C 6,4 km/h (2 Bft) 95,83 %
19.07.2016 02:48 16,6 C 94 % 1019,9 hPa 0,0 l/m 4,3 km/h (1 Bft) S-SO 168 0 min 0,000 mm 0,0 UV-I 0 W/m 15,6 C 16,6 C 8,0 km/h (2 Bft) 97,87 %
19.07.2016 02:50 16,6 C 94 % 1019,8 hPa 0,0 l/m 4,3 km/h (1 Bft) S 184 0 min 0,000 mm 0,0 UV-I 0 W/m 15,6 C 16,6 C 6,4 km/h (2 Bft) 98,00 %
19.07.2016 02:52 16,6 C 94 % 1019,9 hPa 0,0 l/m 4,8 km/h (1 Bft) S 185 0 min 0,000 mm 0,0 UV-I 0 W/m 15,6 C 16,6 C 6,4 km/h (2 Bft) 95,83 %
19.07.2016 02:54 16,6 C 94 % 1019,9 hPa 0,0 l/m 4,8 km/h (1 Bft) S 177 0 min 0,000 mm 0,0 UV-I 0 W/m 15,6 C 16,6 C 6,4 km/h (2 Bft) 100,00 %
19.07.2016 02:56 16,6 C 94 % 1019,9 hPa 0,0 l/m 3,5 km/h (1 Bft) S 187 0 min 0,000 mm 0,0 UV-I 0 W/m 15,6 C 16,6 C 6,4 km/h (2 Bft) 100,00 %
19.07.2016 02:58 16,6 C 94 % 1019,9 hPa 0,0 l/m 4,0 km/h (1 Bft) S 182 0 min 0,000 mm 0,0 UV-I 0 W/m 15,6 C 16,6 C 6,4 km/h (2 Bft) 100,00 %
19.07.2016 03:00 16,6 C 94 % 1019,9 hPa 0,0 l/m 3,9 km/h (1 Bft) S 186 0 min 0,000 mm 0,0 UV-I 0 W/m 15,6 C 16,6 C 4,8 km/h (1 Bft) 100,00 %
19.07.2016 03:02 16,7 C 94 % 1019,9 hPa 0,0 l/m 4,8 km/h (1 Bft) S 178 0 min 0,000 mm 0,0 UV-I 0 W/m 15,7 C 16,7 C 6,4 km/h (2 Bft) 95,74 %
19.07.2016 03:04 16,7 C 94 % 1019,9 hPa 0,0 l/m 3,5 km/h (1 Bft) S 179 0 min 0,000 mm 0,0 UV-I 0 W/m 15,7 C 16,7 C 4,8 km/h (1 Bft) 100,00 %
19.07.2016 03:06 16,7 C 94 % 1019,9 hPa 0,0 l/m 2,3 km/h (1 Bft) S 179 0 min 0,000 mm 0,0 UV-I 0 W/m 15,7 C 16,7 C 4,8 km/h (1 Bft) 100,00 %
19.07.2016 03:08 16,7 C 94 % 1019,9 hPa 0,0 l/m 2,9 km/h (1 Bft) S 190 0 min 0,000 mm 0,0 UV-I 0 W/m 15,7 C 16,7 C 4,8 km/h (1 Bft) 100,00 %
19.07.2016 03:10 16,7 C 94 % 1019,9 hPa 0,0 l/m 2,1 km/h (1 Bft) S 190 0 min 0,000 mm 0,0 UV-I 0 W/m 15,7 C 16,7 C 3,2 km/h (1 Bft) 97,37 %
19.07.2016 03:12 16,7 C 94 % 1019,9 hPa 0,0 l/m 3,7 km/h (1 Bft) S 190 0 min 0,000 mm 0,0 UV-I 0 W/m 15,7 C 16,7 C 6,4 km/h (2 Bft) 97,87 %
19.07.2016 03:14 16,7 C 94 % 1019,9 hPa 0,0 l/m 3,2 km/h (1 Bft) S 190 0 min 0,000 mm 0,0 UV-I 0 W/m 15,7 C 16,7 C 4,8 km/h (1 Bft) 100,00 %
19.07.2016 03:16 16,7 C 94 % 1019,9 hPa 0,0 l/m 3,8 km/h (1 Bft) S 190 0 min 0,000 mm 0,0 UV-I 0 W/m 15,7 C 16,7 C 6,4 km/h (2 Bft) 100,00 %
19.07.2016 03:18 16,6 C 93 % 1019,9 hPa 0,0 l/m 2,7 km/h (1 Bft) S 190 0 min 0,000 mm 0,0 UV-I 0 W/m 15,5 C 16,6 C 4,8 km/h (1 Bft) 100,00 %
19.07.2016 03:20 16,4 C 93 % 1019,9 hPa 0,0 l/m 2,1 km/h (1 Bft) S 190 0 min 0,000 mm 0,0 UV-I 0 W/m 15,3 C 16,4 C 3,2 km/h (1 Bft) 100,00 %
19.07.2016 03:22 16,3 C 93 % 1019,9 hPa 0,0 l/m 0,8 km/h (0 Bft) S 190 0 min 0,000 mm 0,0 UV-I 0 W/m 15,2 C 16,3 C 3,2 km/h (1 Bft) 100,00 %
19.07.2016 03:24 16,2 C 94 % 1019,9 hPa 0,0 l/m 0,1 km/h (0 Bft) S 190 0 min 0,000 mm 0,0 UV-I 0 W/m 15,2 C 16,2 C 1,6 km/h (1 Bft) 100,00 %
19.07.2016 03:26 16,2 C 94 % 1019,9 hPa 0,0 l/m 0,0 km/h (0 Bft) S 190 0 min 0,000 mm 0,0 UV-I 0 W/m 15,2 C 16,2 C 0,0 km/h (0 Bft) 100,00 %
19.07.2016 03:28 16,1 C 94 % 1019,9 hPa 0,0 l/m 0,0 km/h (0 Bft) S 190 0 min 0,000 mm 0,0 UV-I 0 W/m 15,1 C 16,1 C 0,0 km/h (0 Bft) 100,00 %
19.07.2016 03:30 16,1 C 94 % 1019,9 hPa 0,0 l/m 0,0 km/h (0 Bft) S 190 0 min 0,000 mm 0,0 UV-I 0 W/m 15,1 C 16,1 C 0,0 km/h (0 Bft) 100,00 %
19.07.2016 03:32 16,0 C 94 % 1019,9 hPa 0,0 l/m 1,4 km/h (1 Bft) S 190 0 min 0,000 mm 0,0 UV-I 0 W/m 15,0 C 16,0 C 3,2 km/h (1 Bft) 97,87 %
19.07.2016 03:34 15,9 C 94 % 1019,9 hPa 0,0 l/m 1,8 km/h (1 Bft) S 190 0 min 0,000 mm 0,0 UV-I 0 W/m 14,9 C 15,9 C 3,2 km/h (1 Bft) 97,87 %
19.07.2016 03:36 15,8 C 94 % 1019,9 hPa 0,0 l/m 1,3 km/h (1 Bft) S 190 0 min 0,000 mm 0,0 UV-I 0 W/m 14,8 C 15,8 C 3,2 km/h (1 Bft) 100,00 %
19.07.2016 03:38 15,8 C 95 % 1019,9 hPa 0,0 l/m 1,1 km/h (1 Bft) S 190 0 min 0,000 mm 0,0 UV-I 0 W/m 15,0 C 15,8 C 1,6 km/h (1 Bft) 100,00 %
19.07.2016 03:40 15,8 C 95 % 1019,8 hPa 0,0 l/m 1,5 km/h (1 Bft) S 190 0 min 0,000 mm 0,0 UV-I 0 W/m 15,0 C 15,8 C 3,2 km/h (1 Bft) 97,87 %
19.07.2016 03:42 15,7 C 95 % 1019,9 hPa 0,0 l/m 1,2 km/h (1 Bft) S 190 0 min 0,000 mm 0,0 UV-I 0 W/m 14,9 C 15,7 C 1,6 km/h (1 Bft) 97,87 %
19.07.2016 03:44 15,7 C 95 % 1019,9 hPa 0,0 l/m 0,3 km/h (0 Bft) S 190 0 min 0,000 mm 0,0 UV-I 0 W/m 14,9 C 15,7 C 1,6 km/h (1 Bft) 97,87 %
19.07.2016 03:46 15,6 C 95 % 1019,9 hPa 0,0 l/m 0,0 km/h (0 Bft) S 190 0 min 0,000 mm 0,0 UV-I 0 W/m 14,8 C 15,6 C 0,0 km/h (0 Bft) 97,37 %
19.07.2016 03:48 15,7 C 95 % 1019,9 hPa 0,0 l/m 0,0 km/h (0 Bft) S 190 0 min 0,000 mm 0,0 UV-I 0 W/m 14,9 C 15,7 C 0,0 km/h (0 Bft) 100,00 %
19.07.2016 03:50 15,7 C 95 % 1019,9 hPa 0,0 l/m 0,1 km/h (0 Bft) S 190 0 min 0,000 mm 0,0 UV-I 0 W/m 14,9 C 15,7 C 1,6 km/h (1 Bft) 95,74 %
19.07.2016 03:52 15,6 C 95 % 1019,9 hPa 0,0 l/m 0,2 km/h (0 Bft) S 190 0 min 0,000 mm 0,0 UV-I 0 W/m 14,8 C 15,6 C 1,6 km/h (1 Bft) 97,87 %
19.07.2016 03:54 15,7 C 96 % 1019,9 hPa 0,0 l/m 0,5 km/h (0 Bft) S 190 0 min 0,000 mm 0,0 UV-I 0 W/m 15,1 C 15,7 C 3,2 km/h (1 Bft) 97,87 %
19.07.2016 03:56 15,7 C 95 % 1019,9 hPa 0,0 l/m 1,9 km/h (1 Bft) S 190 0 min 0,000 mm 0,0 UV-I 0 W/m 14,9 C 15,7 C 3,2 km/h (1 Bft) 100,00 %
19.07.2016 03:58 15,7 C 95 % 1019,9 hPa 0,0 l/m 2,1 km/h (1 Bft) S 190 0 min 0,000 mm 0,0 UV-I 0 W/m 14,9 C 15,7 C 3,2 km/h (1 Bft) 95,74 %
19.07.2016 04:00 15,6 C 95 % 1019,8 hPa 0,0 l/m 1,7 km/h (1 Bft) S 190 0 min 0,000 mm 0,0 UV-I 0 W/m 14,8 C 15,6 C 3,2 km/h (1 Bft) 100,00 %
19.07.2016 04:02 15,6 C 95 % 1019,8 hPa 0,0 l/m 1,7 km/h (1 Bft) S 190 0 min 0,000 mm 0,0 UV-I 0 W/m 14,8 C 15,6 C 3,2 km/h (1 Bft) 96,30 %
19.07.2016 04:04 15,4 C 95 % 1019,9 hPa 0,0 l/m 1,1 km/h (1 Bft) S 190 0 min 0,000 mm 0,0 UV-I 0 W/m 14,6 C 15,4 C 1,6 km/h (1 Bft) 100,00 %
19.07.2016 04:06 15,3 C 95 % 1019,9 hPa 0,0 l/m 0,4 km/h (0 Bft) S 190 0 min 0,000 mm 0,0 UV-I 0 W/m 14,5 C 15,3 C 1,6 km/h (1 Bft) 97,92 %
19.07.2016 04:08 15,3 C 95 % 1019,9 hPa 0,0 l/m 0,0 km/h (0 Bft) S 190 0 min 0,000 mm 0,0 UV-I 0 W/m 14,5 C 15,3 C 0,0 km/h (0 Bft) 97,87 %
19.07.2016 04:10 15,3 C 95 % 1019,9 hPa 0,0 l/m 0,0 km/h (0 Bft) S 190 0 min 0,000 mm 0,0 UV-I 0 W/m 14,5 C 15,3 C 0,0 km/h (0 Bft) 93,62 %
19.07.2016 04:12 15,3 C 96 % 1019,9 hPa 0,0 l/m 0,0 km/h (0 Bft) S 190 0 min 0,000 mm 0,0 UV-I 0 W/m 14,7 C 15,3 C 0,0 km/h (0 Bft) 97,87 %
19.07.2016 04:14 15,3 C 95 % 1019,9 hPa 0,0 l/m 0,0 km/h (0 Bft) S 190 0 min 0,000 mm 0,0 UV-I 0 W/m 14,5 C 15,3 C 0,0 km/h (0 Bft) 98,00 %
19.07.2016 04:16 15,3 C 96 % 1019,9 hPa 0,0 l/m 0,0 km/h (0 Bft) S 190 0 min 0,000 mm 0,0 UV-I 0 W/m 14,7 C 15,3 C 0,0 km/h (0 Bft) 95,74 %
19.07.2016 04:18 15,3 C 96 % 1019,9 hPa 0,0 l/m 0,0 km/h (0 Bft) S 190 0 min 0,000 mm 0,0 UV-I 0 W/m 14,7 C 15,3 C 0,0 km/h (0 Bft) 100,00 %
19.07.2016 04:20 15,3 C 96 % 1019,9 hPa 0,0 l/m 0,0 km/h (0 Bft) S 190 0 min 0,000 mm 0,0 UV-I 0 W/m 14,7 C 15,3 C 0,0 km/h (0 Bft) 100,00 %
19.07.2016 04:22 15,3 C 96 % 1019,9 hPa 0,0 l/m 0,0 km/h (0 Bft) S 190 0 min 0,000 mm 0,0 UV-I 0 W/m 14,7 C 15,3 C 0,0 km/h (0 Bft) 97,87 %
19.07.2016 04:24 15,3 C 95 % 1019,9 hPa 0,0 l/m 0,0 km/h (0 Bft) S 190 0 min 0,000 mm 0,0 UV-I 0 W/m 14,5 C 15,3 C 0,0 km/h (0 Bft) 97,87 %
19.07.2016 04:26 15,1 C 95 % 1020,0 hPa 0,0 l/m 0,0 km/h (0 Bft) S 190 0 min 0,000 mm 0,0 UV-I 0 W/m 14,3 C 15,1 C 0,0 km/h (0 Bft) 97,87 %
19.07.2016 04:28 15,1 C 95 % 1019,9 hPa 0,0 l/m 0,0 km/h (0 Bft) S 190 0 min 0,000 mm 0,0 UV-I 0 W/m 14,3 C 15,1 C 0,0 km/h (0 Bft) 95,74 %
19.07.2016 04:30 14,9 C 95 % 1019,9 hPa 0,0 l/m 0,4 km/h (0 Bft) S 190 0 min 0,000 mm 0,0 UV-I 0 W/m 14,1 C 14,9 C 1,6 km/h (1 Bft) 97,87 %
19.07.2016 04:32 14,9 C 95 % 1019,9 hPa 0,0 l/m 2,1 km/h (1 Bft) S 190 0 min 0,000 mm 0,0 UV-I 0 W/m 14,1 C 14,9 C 3,2 km/h (1 Bft) 95,74 %
19.07.2016 04:34 14,9 C 96 % 1019,8 hPa 0,0 l/m 1,9 km/h (1 Bft) S 190 0 min 0,000 mm 0,0 UV-I 0 W/m 14,3 C 14,9 C 3,2 km/h (1 Bft) 95,74 %
19.07.2016 04:36 14,9 C 96 % 1019,8 hPa 0,0 l/m 0,9 km/h (0 Bft) S 190 0 min 0,000 mm 0,0 UV-I 0 W/m 14,3 C 14,9 C 3,2 km/h (1 Bft) 95,74 %
19.07.2016 04:38 14,9 C 96 % 1019,8 hPa 0,0 l/m 0,2 km/h (0 Bft) S 190 0 min 0,000 mm 0,0 UV-I 0 W/m 14,3 C 14,9 C 1,6 km/h (1 Bft) 97,87 %
19.07.2016 04:40 14,8 C 96 % 1019,8 hPa 0,0 l/m 0,0 km/h (0 Bft) S 190 0 min 0,000 mm 0,0 UV-I 0 W/m 14,2 C 14,8 C 0,0 km/h (0 Bft) 97,87 %
19.07.2016 04:42 14,8 C 96 % 1019,8 hPa 0,0 l/m 0,0 km/h (0 Bft) S 190 0 min 0,000 mm 0,0 UV-I 0 W/m 14,2 C 14,8 C 0,0 km/h (0 Bft) 97,22 %
19.07.2016 04:44 14,8 C 96 % 1019,9 hPa 0,0 l/m 0,0 km/h (0 Bft) S 190 0 min 0,000 mm 0,0 UV-I 0 W/m 14,2 C 14,8 C 0,0 km/h (0 Bft) 98,00 %
19.07.2016 04:46 14,8 C 96 % 1019,8 hPa 0,0 l/m 0,0 km/h (0 Bft) S 190 0 min 0,000 mm 0,0 UV-I 0 W/m 14,2 C 14,8 C 0,0 km/h (0 Bft) 98,00 %
19.07.2016 04:48 14,8 C 96 % 1019,8 hPa 0,0 l/m 0,0 km/h (0 Bft) S 190 0 min 0,000 mm 0,0 UV-I 0 W/m 14,2 C 14,8 C 0,0 km/h (0 Bft) 93,62 %
19.07.2016 04:50 14,7 C 96 % 1019,8 hPa 0,0 l/m 0,0 km/h (0 Bft) S 190 0 min 0,000 mm 0,0 UV-I 0 W/m 14,1 C 14,7 C 1,6 km/h (1 Bft) 97,87 %
19.07.2016 04:52 14,7 C 96 % 1019,8 hPa 0,0 l/m 0,5 km/h (0 Bft) S 190 0 min 0,000 mm 0,0 UV-I 0 W/m 14,1 C 14,7 C 1,6 km/h (1 Bft) 95,74 %
19.07.2016 04:54 14,6 C 96 % 1019,8 hPa 0,0 l/m 0,8 km/h (0 Bft) S 190 0 min 0,000 mm 0,0 UV-I 0 W/m 14,0 C 14,6 C 1,6 km/h (1 Bft) 94,00 %
19.07.2016 04:56 14,5 C 96 % 1019,8 hPa 0,0 l/m 1,1 km/h (1 Bft) S 190 0 min 0,000 mm 0,0 UV-I 0 W/m 13,9 C 14,5 C 1,6 km/h (1 Bft) 97,87 %
19.07.2016 04:58 14,4 C 96 % 1019,8 hPa 0,0 l/m 1,2 km/h (1 Bft) S 190 0 min 0,000 mm 0,0 UV-I 0 W/m 13,8 C 14,4 C 1,6 km/h (1 Bft) 93,62 %
19.07.2016 05:00 14,4 C 96 % 1019,8 hPa 0,0 l/m 0,5 km/h (0 Bft) S 190 0 min 0,000 mm 0,0 UV-I 0 W/m 13,8 C 14,4 C 1,6 km/h (1 Bft) 97,87 %
19.07.2016 05:02 14,4 C 96 % 1019,8 hPa 0,0 l/m 0,4 km/h (0 Bft) S 190 0 min 0,000 mm 0,0 UV-I 0 W/m 13,8 C 14,4 C 1,6 km/h (1 Bft) 95,74 %
19.07.2016 05:04 14,4 C 96 % 1019,8 hPa 0,0 l/m 1,3 km/h (1 Bft) S 190 0 min 0,000 mm 0,0 UV-I 0 W/m 13,8 C 14,4 C 1,6 km/h (1 Bft) 97,87 %
19.07.2016 05:06 14,4 C 96 % 1019,8 hPa 0,0 l/m 1,4 km/h (1 Bft) S 190 0 min 0,000 mm 0,0 UV-I 0 W/m 13,8 C 14,4 C 3,2 km/h (1 Bft) 95,74 %
19.07.2016 05:08 14,4 C 96 % 1019,8 hPa 0,0 l/m 1,2 km/h (1 Bft) S 190 0 min 0,000 mm 0,0 UV-I 0 W/m 13,8 C 14,4 C 1,6 km/h (1 Bft) 97,87 %
19.07.2016 05:10 14,4 C 96 % 1019,8 hPa 0,0 l/m 0,9 km/h (0 Bft) S 190 0 min 0,000 mm 0,0 UV-I 0 W/m 13,8 C 14,4 C 1,6 km/h (1 Bft) 97,87 %
19.07.2016 05:12 14,5 C 96 % 1019,8 hPa 0,0 l/m 1,3 km/h (1 Bft) S 190 0 min 0,000 mm 0,0 UV-I 0 W/m 13,9 C 14,5 C 1,6 km/h (1 Bft) 100,00 %
19.07.2016 05:14 14,4 C 96 % 1019,8 hPa 0,0 l/m 0,4 km/h (0 Bft) S 190 0 min 0,000 mm 0,0 UV-I 0 W/m 13,8 C 14,4 C 1,6 km/h (1 Bft) 97,14 %
19.07.2016 05:16 14,4 C 96 % 1019,8 hPa 0,0 l/m 0,0 km/h (0 Bft) S 190 0 min 0,000 mm 0,0 UV-I 0 W/m 13,8 C 14,4 C 0,0 km/h (0 Bft) 97,87 %
19.07.2016 05:18 14,4 C 96 % 1019,8 hPa 0,0 l/m 0,0 km/h (0 Bft) S 190 0 min 0,000 mm 0,0 UV-I 0 W/m 13,8 C 14,4 C 0,0 km/h (0 Bft) 100,00 %
19.07.2016 05:20 14,5 C 96 % 1019,8 hPa 0,0 l/m 0,0 km/h (0 Bft) S 190 0 min 0,000 mm 0,0 UV-I 0 W/m 13,9 C 14,5 C 0,0 km/h (0 Bft) 100,00 %
19.07.2016 05:22 14,4 C 96 % 1019,8 hPa 0,0 l/m 0,0 km/h (0 Bft) S 190 0 min 0,000 mm 0,0 UV-I 2 W/m 13,8 C 14,4 C 0,0 km/h (0 Bft) 100,00 %
19.07.2016 05:24 14,5 C 96 % 1019,8 hPa 0,0 l/m 0,0 km/h (0 Bft) S 190 0 min 0,000 mm 0,0 UV-I 5 W/m 13,9 C 14,5 C 0,0 km/h (0 Bft) 97,87 %
19.07.2016 05:26 14,5 C 96 % 1019,8 hPa 0,0 l/m 0,0 km/h (0 Bft) S 190 0 min 0,000 mm 0,0 UV-I 5 W/m 13,9 C 14,5 C 0,0 km/h (0 Bft) 100,00 %
19.07.2016 05:28 14,5 C 96 % 1019,8 hPa 0,0 l/m 0,0 km/h (0 Bft) S 190 0 min 0,000 mm 0,0 UV-I 5 W/m 13,9 C 14,5 C 0,0 km/h (0 Bft) 100,00 %
19.07.2016 05:30 14,4 C 96 % 1019,8 hPa 0,0 l/m 0,7 km/h (0 Bft) S 190 0 min 0,000 mm 0,0 UV-I 7 W/m 13,8 C 14,4 C 1,6 km/h (1 Bft) 97,87 %
19.07.2016 05:32 14,3 C 96 % 1019,8 hPa 0,0 l/m 0,8 km/h (0 Bft) S 190 0 min 0,000 mm 0,0 UV-I 7 W/m 13,7 C 14,3 C 1,6 km/h (1 Bft) 100,00 %
19.07.2016 05:34 14,2 C 96 % 1019,8 hPa 0,0 l/m 0,0 km/h (0 Bft) S 190 0 min 0,000 mm 0,0 UV-I 8 W/m 13,6 C 14,2 C 0,0 km/h (0 Bft) 97,87 %
19.07.2016 05:36 14,2 C 96 % 1019,8 hPa 0,0 l/m 0,0 km/h (0 Bft) S 190 2 min 0,000 mm 0,0 UV-I 9 W/m 13,6 C 14,2 C 0,0 km/h (0 Bft) 100,00 %
19.07.2016 05:38 14,2 C 96 % 1019,8 hPa 0,0 l/m 0,1 km/h (0 Bft) S 190 0 min 0,000 mm 0,0 UV-I 10 W/m 13,6 C 14,2 C 1,6 km/h (1 Bft) 95,74 %
19.07.2016 05:40 14,2 C 96 % 1019,9 hPa 0,0 l/m 0,0 km/h (0 Bft) S 190 0 min 0,000 mm 0,0 UV-I 11 W/m 13,6 C 14,2 C 0,0 km/h (0 Bft) 97,87 %
19.07.2016 05:42 14,2 C 96 % 1019,9 hPa 0,0 l/m 0,0 km/h (0 Bft) S 190 0 min 0,000 mm 0,0 UV-I 12 W/m 13,6 C 14,2 C 1,6 km/h (1 Bft) 100,00 %
19.07.2016 05:44 14,3 C 96 % 1019,9 hPa 0,0 l/m 0,0 km/h (0 Bft) S 190 0 min 0,000 mm 0,0 UV-I 12 W/m 13,7 C 14,3 C 0,0 km/h (0 Bft) 100,00 %
19.07.2016 05:46 14,3 C 96 % 1019,9 hPa 0,0 l/m 0,0 km/h (0 Bft) S 190 0 min 0,000 mm 0,0 UV-I 13 W/m 13,7 C 14,3 C 0,0 km/h (0 Bft) 95,74 %
19.07.2016 05:48 14,3 C 96 % 1019,9 hPa 0,0 l/m 0,0 km/h (0 Bft) S 190 0 min 0,000 mm 0,0 UV-I 14 W/m 13,7 C 14,3 C 0,0 km/h (0 Bft) 100,00 %
19.07.2016 05:50 14,3 C 96 % 1019,9 hPa 0,0 l/m 0,0 km/h (0 Bft) S 190 0 min 0,000 mm 0,0 UV-I 15 W/m 13,7 C 14,3 C 0,0 km/h (0 Bft) 100,00 %
19.07.2016 05:52 14,2 C 96 % 1019,9 hPa 0,0 l/m 1,1 km/h (1 Bft) S 190 0 min 0,000 mm 0,0 UV-I 16 W/m 13,6 C 14,2 C 3,2 km/h (1 Bft) 97,87 %
19.07.2016 05:54 14,2 C 96 % 1019,9 hPa 0,0 l/m 1,7 km/h (1 Bft) S 190 0 min 0,000 mm 0,0 UV-I 18 W/m 13,6 C 14,2 C 3,2 km/h (1 Bft) 100,00 %
19.07.2016 05:56 14,1 C 96 % 1020,0 hPa 0,0 l/m 1,6 km/h (1 Bft) S 190 0 min 0,000 mm 0,0 UV-I 18 W/m 13,5 C 14,1 C 3,2 km/h (1 Bft) 100,00 %
19.07.2016 05:58 14,1 C 96 % 1019,9 hPa 0,0 l/m 1,7 km/h (1 Bft) S 190 0 min 0,000 mm 0,0 UV-I 19 W/m 13,5 C 14,1 C 3,2 km/h (1 Bft) 100,00 %
19.07.2016 06:00 14,2 C 96 % 1019,9 hPa 0,0 l/m 1,8 km/h (1 Bft) S 190 0 min 0,000 mm 0,0 UV-I 19 W/m 13,6 C 14,2 C 3,2 km/h (1 Bft) 97,87 %
19.07.2016 06:02 14,3 C 96 % 1019,8 hPa 0,0 l/m 1,9 km/h (1 Bft) S 190 0 min 0,000 mm 0,0 UV-I 20 W/m 13,7 C 14,3 C 3,2 km/h (1 Bft) 100,00 %
19.07.2016 06:04 14,3 C 96 % 1019,9 hPa 0,0 l/m 1,6 km/h (1 Bft) S 190 0 min 0,000 mm 0,0 UV-I 21 W/m 13,7 C 14,3 C 1,6 km/h (1 Bft) 95,74 %
19.07.2016 06:06 14,4 C 96 % 1019,8 hPa 0,0 l/m 1,4 km/h (1 Bft) S 190 0 min 0,000 mm 0,0 UV-I 22 W/m 13,8 C 14,4 C 1,6 km/h (1 Bft) 100,00 %
19.07.2016 06:08 14,4 C 96 % 1019,9 hPa 0,0 l/m 1,9 km/h (1 Bft) S 190 0 min 0,000 mm 0,0 UV-I 23 W/m 13,8 C 14,4 C 3,2 km/h (1 Bft) 100,00 %
19.07.2016 06:10 14,4 C 96 % 1019,8 hPa 0,0 l/m 1,4 km/h (1 Bft) S 190 0 min 0,000 mm 0,0 UV-I 24 W/m 13,8 C 14,4 C 3,2 km/h (1 Bft) 100,00 %
19.07.2016 06:12 14,3 C 96 % 1019,9 hPa 0,0 l/m 2,2 km/h (1 Bft) S 190 0 min 0,000 mm 0,0 UV-I 25 W/m 13,7 C 14,3 C 4,8 km/h (1 Bft) 100,00 %
19.07.2016 06:14 14,5 C 96 % 1019,9 hPa 0,0 l/m 2,4 km/h (1 Bft) S 190 0 min 0,000 mm 0,0 UV-I 25 W/m 13,9 C 14,5 C 3,2 km/h (1 Bft) 100,00 %
19.07.2016 06:16 14,6 C 97 % 1019,8 hPa 0,0 l/m 2,4 km/h (1 Bft) S 190 0 min 0,000 mm 0,0 UV-I 26 W/m 14,1 C 14,6 C 3,2 km/h (1 Bft) 95,74 %
19.07.2016 06:18 14,6 C 97 % 1019,9 hPa 0,0 l/m 2,6 km/h (1 Bft) S 190 0 min 0,000 mm 0,0 UV-I 26 W/m 14,1 C 14,6 C 4,8 km/h (1 Bft) 97,87 %
19.07.2016 06:20 14,7 C 97 % 1019,9 hPa 0,0 l/m 2,4 km/h (1 Bft) S 190 0 min 0,000 mm 0,0 UV-I 27 W/m 14,2 C 14,7 C 4,8 km/h (1 Bft) 100,00 %
19.07.2016 06:22 14,8 C 97 % 1019,9 hPa 0,0 l/m 3,1 km/h (1 Bft) S 190 0 min 0,000 mm 0,0 UV-I 28 W/m 14,3 C 14,8 C 4,8 km/h (1 Bft) 97,87 %
19.07.2016 06:24 14,9 C 97 % 1019,9 hPa 0,0 l/m 1,9 km/h (1 Bft) S 190 0 min 0,000 mm 0,0 UV-I 28 W/m 14,4 C 14,9 C 3,2 km/h (1 Bft) 100,00 %
19.07.2016 06:26 15,0 C 97 % 1019,9 hPa 0,0 l/m 0,8 km/h (0 Bft) S 190 0 min 0,000 mm 0,0 UV-I 29 W/m 14,5 C 15,0 C 3,2 km/h (1 Bft) 100,00 %
19.07.2016 06:28 15,1 C 97 % 1020,0 hPa 0,0 l/m 1,5 km/h (1 Bft) S 190 0 min 0,000 mm 0,0 UV-I 30 W/m 14,6 C 15,1 C 4,8 km/h (1 Bft) 97,87 %
19.07.2016 06:30 15,2 C 97 % 1020,0 hPa 0,0 l/m 3,7 km/h (1 Bft) S 190 0 min 0,000 mm 0,0 UV-I 31 W/m 14,7 C 15,2 C 4,8 km/h (1 Bft) 95,74 %
19.07.2016 06:32 15,3 C 97 % 1020,0 hPa 0,0 l/m 2,6 km/h (1 Bft) S 190 0 min 0,000 mm 0,0 UV-I 32 W/m 14,8 C 15,3 C 4,8 km/h (1 Bft) 97,87 %
19.07.2016 06:34 15,3 C 97 % 1020,0 hPa 0,0 l/m 2,5 km/h (1 Bft) S 190 0 min 0,000 mm 0,0 UV-I 32 W/m 14,8 C 15,3 C 4,8 km/h (1 Bft) 93,62 %
19.07.2016 06:36 15,4 C 97 % 1020,0 hPa 0,0 l/m 2,7 km/h (1 Bft) S 190 0 min 0,000 mm 0,0 UV-I 33 W/m 14,9 C 15,4 C 4,8 km/h (1 Bft) 97,92 %
19.07.2016 06:38 15,4 C 97 % 1020,1 hPa 0,0 l/m 2,3 km/h (1 Bft) S 190 0 min 0,000 mm 0,0 UV-I 33 W/m 14,9 C 15,4 C 4,8 km/h (1 Bft) 95,74 %
19.07.2016 06:40 15,4 C 97 % 1020,1 hPa 0,0 l/m 2,7 km/h (1 Bft) S 190 0 min 0,000 mm 0,0 UV-I 33 W/m 14,9 C 15,4 C 4,8 km/h (1 Bft) 97,87 %
19.07.2016 06:42 15,5 C 96 % 1020,1 hPa 0,0 l/m 2,6 km/h (1 Bft) S 190 0 min 0,000 mm 0,0 UV-I 35 W/m 14,9 C 15,5 C 3,2 km/h (1 Bft) 97,62 %
19.07.2016 06:44 15,5 C 97 % 1020,1 hPa 0,0 l/m 3,3 km/h (1 Bft) S 190 0 min 0,000 mm 0,0 UV-I 36 W/m 15,0 C 15,5 C 4,8 km/h (1 Bft) 98,00 %
19.07.2016 06:46 15,6 C 97 % 1020,1 hPa 0,0 l/m 2,9 km/h (1 Bft) S 190 0 min 0,000 mm 0,0 UV-I 61 W/m 15,1 C 15,6 C 3,2 km/h (1 Bft) 97,87 %
19.07.2016 06:48 15,6 C 97 % 1020,1 hPa 0,0 l/m 2,7 km/h (1 Bft) S 190 0 min 0,000 mm 0,0 UV-I 99 W/m 15,1 C 15,6 C 3,2 km/h (1 Bft) 98,00 %
19.07.2016 06:50 15,7 C 96 % 1020,1 hPa 0,0 l/m 2,4 km/h (1 Bft) S 190 0 min 0,000 mm 0,0 UV-I 107 W/m 15,1 C 15,7 C 4,8 km/h (1 Bft) 95,74 %
19.07.2016 06:52 15,7 C 96 % 1020,1 hPa 0,0 l/m 1,9 km/h (1 Bft) S 190 0 min 0,000 mm 0,0 UV-I 112 W/m 15,1 C 15,7 C 4,8 km/h (1 Bft) 97,87 %
19.07.2016 06:54 15,7 C 96 % 1020,2 hPa 0,0 l/m 1,7 km/h (1 Bft) S 190 0 min 0,000 mm 0,0 UV-I 117 W/m 15,1 C 15,7 C 3,2 km/h (1 Bft) 95,74 %
19.07.2016 06:56 15,8 C 96 % 1020,2 hPa 0,0 l/m 0,8 km/h (0 Bft) S 190 2 min 0,000 mm 0,0 UV-I 123 W/m 15,2 C 15,8 C 3,2 km/h (1 Bft) 97,87 %
19.07.2016 06:58 15,9 C 97 % 1020,3 hPa 0,0 l/m 0,4 km/h (0 Bft) S 190 2 min 0,000 mm 0,0 UV-I 129 W/m 15,4 C 15,9 C 1,6 km/h (1 Bft) 97,87 %
19.07.2016 07:00 16,1 C 96 % 1020,3 hPa 0,0 l/m 1,4 km/h (1 Bft) O-NO 63 2 min 0,025 mm 0,0 UV-I 134 W/m 15,5 C 16,1 C 4,8 km/h (1 Bft) 97,87 %
19.07.2016 07:02 16,3 C 97 % 1020,3 hPa 0,0 l/m 0,2 km/h (0 Bft) O-NO 63 2 min 0,000 mm 0,0 UV-I 139 W/m 15,8 C 16,3 C 1,6 km/h (1 Bft) 98,00 %
19.07.2016 07:04 16,3 C 96 % 1020,3 hPa 0,0 l/m 0,2 km/h (0 Bft) O-NO 63 2 min 0,000 mm 0,0 UV-I 145 W/m 15,7 C 16,3 C 1,6 km/h (1 Bft) 97,87 %
19.07.2016 07:06 16,4 C 96 % 1020,3 hPa 0,0 l/m 0,6 km/h (0 Bft) O-NO 63 2 min 0,000 mm 0,0 UV-I 151 W/m 15,8 C 16,4 C 1,6 km/h (1 Bft) 97,87 %
19.07.2016 07:08 16,4 C 96 % 1020,3 hPa 0,0 l/m 0,6 km/h (0 Bft) O-NO 63 2 min 0,000 mm 0,0 UV-I 157 W/m 15,8 C 16,4 C 1,6 km/h (1 Bft) 100,00 %
19.07.2016 07:10 16,6 C 96 % 1020,4 hPa 0,0 l/m 0,7 km/h (0 Bft) O-NO 63 2 min 0,000 mm 0,0 UV-I 163 W/m 16,0 C 16,6 C 1,6 km/h (1 Bft) 100,00 %
19.07.2016 07:12 16,7 C 96 % 1020,3 hPa 0,0 l/m 0,3 km/h (0 Bft) O-NO 63 2 min 0,000 mm 0,0 UV-I 171 W/m 16,1 C 16,7 C 1,6 km/h (1 Bft) 100,00 %
19.07.2016 07:14 16,7 C 95 % 1020,3 hPa 0,0 l/m 1,2 km/h (1 Bft) O-NO 63 2 min 0,000 mm 0,0 UV-I 177 W/m 15,9 C 16,7 C 3,2 km/h (1 Bft) 97,87 %
19.07.2016 07:16 16,8 C 95 % 1020,3 hPa 0,0 l/m 0,1 km/h (0 Bft) O-NO 63 2 min 0,000 mm 0,0 UV-I 184 W/m 16,0 C 16,8 C 1,6 km/h (1 Bft) 100,00 %
19.07.2016 07:18 16,8 C 95 % 1020,4 hPa 0,0 l/m 0,6 km/h (0 Bft) O-NO 63 2 min 0,000 mm 0,1 UV-I 190 W/m 16,0 C 16,8 C 3,2 km/h (1 Bft) 100,00 %
19.07.2016 07:20 16,9 C 95 % 1020,4 hPa 0,0 l/m 1,4 km/h (1 Bft) N 5 2 min 0,000 mm 0,5 UV-I 195 W/m 16,1 C 16,9 C 3,2 km/h (1 Bft) 100,00 %
19.07.2016 07:22 17,0 C 94 % 1020,4 hPa 0,0 l/m 0,7 km/h (0 Bft) N 5 2 min 0,000 mm 0,5 UV-I 201 W/m 16,0 C 17,0 C 1,6 km/h (1 Bft) 100,00 %
19.07.2016 07:24 17,1 C 94 % 1020,4 hPa 0,0 l/m 0,6 km/h (0 Bft) N 5 2 min 0,000 mm 0,5 UV-I 206 W/m 16,1 C 17,1 C 3,2 km/h (1 Bft) 100,00 %
19.07.2016 07:26 17,2 C 94 % 1020,4 hPa 0,0 l/m 0,3 km/h (0 Bft) N 355 2 min 0,000 mm 0,5 UV-I 208 W/m 16,2 C 17,2 C 3,2 km/h (1 Bft) 100,00 %
19.07.2016 07:28 17,2 C 93 % 1020,4 hPa 0,0 l/m 3,7 km/h (1 Bft) W 277 2 min 0,000 mm 0,5 UV-I 205 W/m 16,1 C 17,2 C 4,8 km/h (1 Bft) 97,87 %
19.07.2016 07:30 17,3 C 93 % 1020,4 hPa 0,0 l/m 2,9 km/h (1 Bft) W 273 2 min 0,000 mm 0,6 UV-I 203 W/m 16,2 C 17,3 C 4,8 km/h (1 Bft) 97,87 %
19.07.2016 07:32 17,4 C 93 % 1020,4 hPa 0,0 l/m 1,8 km/h (1 Bft) W 273 2 min 0,000 mm 0,6 UV-I 200 W/m 16,3 C 17,4 C 4,8 km/h (1 Bft) 100,00 %
19.07.2016 07:34 17,4 C 93 % 1020,5 hPa 0,0 l/m 2,2 km/h (1 Bft) W 273 2 min 0,000 mm 0,6 UV-I 199 W/m 16,3 C 17,4 C 3,2 km/h (1 Bft) 97,87 %
19.07.2016 07:36 17,6 C 93 % 1020,5 hPa 0,0 l/m 2,9 km/h (1 Bft) W 278 2 min 0,000 mm 0,7 UV-I 202 W/m 16,5 C 17,6 C 4,8 km/h (1 Bft) 97,87 %
19.07.2016 07:38 17,7 C 93 % 1020,4 hPa 0,0 l/m 3,2 km/h (1 Bft) W-SW 253 2 min 0,000 mm 0,7 UV-I 210 W/m 16,6 C 17,7 C 4,8 km/h (1 Bft) 94,00 %
19.07.2016 07:40 17,7 C 92 % 1020,5 hPa 0,0 l/m 2,2 km/h (1 Bft) W-SW 253 2 min 0,000 mm 0,7 UV-I 222 W/m 16,4 C 17,7 C 4,8 km/h (1 Bft) 95,74 %
19.07.2016 07:42 17,8 C 92 % 1020,5 hPa 0,0 l/m 3,2 km/h (1 Bft) SW 234 2 min 0,000 mm 0,7 UV-I 236 W/m 16,5 C 17,8 C 6,4 km/h (2 Bft) 97,14 %
19.07.2016 07:44 17,8 C 91 % 1020,4 hPa 0,0 l/m 4,7 km/h (1 Bft) S 190 2 min 0,000 mm 0,8 UV-I 254 W/m 16,3 C 17,8 C 9,7 km/h (2 Bft) 100,00 %
19.07.2016 07:46 17,8 C 91 % 1020,4 hPa 0,0 l/m 5,7 km/h (1 Bft) S 188 2 min 0,000 mm 0,8 UV-I 266 W/m 16,3 C 17,8 C 8,0 km/h (2 Bft) 96,00 %
19.07.2016 07:48 17,8 C 91 % 1020,4 hPa 0,0 l/m 5,1 km/h (1 Bft) S-SW 194 2 min 0,000 mm 0,8 UV-I 281 W/m 16,3 C 17,8 C 8,0 km/h (2 Bft) 100,00 %
19.07.2016 07:50 17,8 C 91 % 1020,5 hPa 0,0 l/m 3,5 km/h (1 Bft) S-SW 197 2 min 0,000 mm 0,9 UV-I 287 W/m 16,3 C 17,8 C 8,0 km/h (2 Bft) 97,87 %
19.07.2016 07:52 17,9 C 92 % 1020,5 hPa 0,0 l/m 4,0 km/h (1 Bft) SW 220 2 min 0,000 mm 0,9 UV-I 290 W/m 16,6 C 17,9 C 6,4 km/h (2 Bft) 97,87 %
19.07.2016 07:54 18,0 C 91 % 1020,5 hPa 0,0 l/m 3,6 km/h (1 Bft) SW 234 2 min 0,000 mm 0,9 UV-I 295 W/m 16,5 C 18,0 C 4,8 km/h (1 Bft) 100,00 %
19.07.2016 07:56 18,1 C 91 % 1020,5 hPa 0,0 l/m 3,4 km/h (1 Bft) SW 236 2 min 0,000 mm 0,9 UV-I 302 W/m 16,6 C 18,1 C 4,8 km/h (1 Bft) 98,00 %
19.07.2016 07:58 18,2 C 91 % 1020,5 hPa 0,0 l/m 3,3 km/h (1 Bft) S-SW 201 2 min 0,000 mm 1,0 UV-I 307 W/m 16,7 C 18,2 C 4,8 km/h (1 Bft) 100,00 %
19.07.2016 08:00 18,3 C 91 % 1020,5 hPa 0,0 l/m 2,7 km/h (1 Bft) SW 236 2 min 0,127 mm 1,0 UV-I 312 W/m 16,8 C 18,3 C 4,8 km/h (1 Bft) 100,00 %
19.07.2016 08:02 18,3 C 90 % 1020,5 hPa 0,0 l/m 3,0 km/h (1 Bft) S-SW 211 2 min 0,000 mm 1,0 UV-I 318 W/m 16,6 C 18,3 C 4,8 km/h (1 Bft) 97,87 %
19.07.2016 08:04 18,3 C 89 % 1020,5 hPa 0,0 l/m 1,6 km/h (1 Bft) S-SW 211 2 min 0,000 mm 1,1 UV-I 324 W/m 16,5 C 18,3 C 4,8 km/h (1 Bft) 97,92 %
19.07.2016 08:06 18,4 C 90 % 1020,5 hPa 0,0 l/m 2,1 km/h (1 Bft) SW 216 2 min 0,000 mm 1,1 UV-I 329 W/m 16,7 C 18,4 C 4,8 km/h (1 Bft) 97,87 %
19.07.2016 08:08 18,4 C 89 % 1020,4 hPa 0,0 l/m 5,3 km/h (1 Bft) S-SW 203 2 min 0,000 mm 1,1 UV-I 334 W/m 16,6 C 18,4 C 8,0 km/h (2 Bft) 100,00 %
19.07.2016 08:10 18,6 C 90 % 1020,4 hPa 0,0 l/m 5,3 km/h (1 Bft) S-SW 193 2 min 0,000 mm 1,2 UV-I 340 W/m 16,9 C 18,6 C 9,7 km/h (2 Bft) 100,00 %
19.07.2016 08:12 18,6 C 88 % 1020,4 hPa 0,0 l/m 4,4 km/h (1 Bft) S-SW 196 2 min 0,000 mm 1,2 UV-I 346 W/m 16,6 C 18,6 C 6,4 km/h (2 Bft) 100,00 %
19.07.2016 08:14 18,6 C 89 % 1020,4 hPa 0,0 l/m 4,1 km/h (1 Bft) S 179 2 min 0,000 mm 1,2 UV-I 353 W/m 16,7 C 18,6 C 6,4 km/h (2 Bft) 100,00 %
19.07.2016 08:16 18,7 C 88 % 1020,4 hPa 0,0 l/m 4,8 km/h (1 Bft) S-SO 166 2 min 0,000 mm 1,3 UV-I 359 W/m 16,7 C 18,7 C 8,0 km/h (2 Bft) 100,00 %
19.07.2016 08:18 18,6 C 87 % 1020,4 hPa 0,0 l/m 4,1 km/h (1 Bft) S-SO 164 2 min 0,000 mm 1,3 UV-I 365 W/m 16,4 C 18,6 C 8,0 km/h (2 Bft) 100,00 %
19.07.2016 08:20 18,6 C 89 % 1020,3 hPa 0,0 l/m 4,2 km/h (1 Bft) S-SW 206 2 min 0,000 mm 1,3 UV-I 372 W/m 16,7 C 18,6 C 6,4 km/h (2 Bft) 100,00 %
19.07.2016 08:22 18,7 C 88 % 1020,3 hPa 0,0 l/m 5,1 km/h (1 Bft) S 172 2 min 0,000 mm 1,4 UV-I 376 W/m 16,7 C 18,7 C 9,7 km/h (2 Bft) 100,00 %
19.07.2016 08:24 18,8 C 89 % 1020,3 hPa 0,0 l/m 5,2 km/h (1 Bft) S 189 2 min 0,000 mm 1,4 UV-I 381 W/m 16,9 C 18,8 C 8,0 km/h (2 Bft) 100,00 %
19.07.2016 08:26 19,0 C 88 % 1020,3 hPa 0,0 l/m 4,9 km/h (1 Bft) W-SW 247 2 min 0,000 mm 1,4 UV-I 386 W/m 17,0 C 19,0 C 6,4 km/h (2 Bft) 100,00 %
19.07.2016 08:28 19,1 C 87 % 1020,3 hPa 0,0 l/m 5,3 km/h (1 Bft) SW 227 2 min 0,000 mm 1,5 UV-I 392 W/m 16,9 C 19,1 C 8,0 km/h (2 Bft) 100,00 %
19.07.2016 08:30 19,1 C 86 % 1020,3 hPa 0,0 l/m 2,8 km/h (1 Bft) S-SW 196 2 min 0,000 mm 1,5 UV-I 397 W/m 16,7 C 19,1 C 6,4 km/h (2 Bft) 97,87 %
19.07.2016 08:32 19,1 C 86 % 1020,3 hPa 0,0 l/m 3,2 km/h (1 Bft) SW 217 2 min 0,000 mm 1,6 UV-I 402 W/m 16,7 C 19,1 C 6,4 km/h (2 Bft) 97,87 %
19.07.2016 08:34 19,2 C 85 % 1020,3 hPa 0,0 l/m 3,5 km/h (1 Bft) S 180 2 min 0,000 mm 1,6 UV-I 408 W/m 16,6 C 19,2 C 6,4 km/h (2 Bft) 95,74 %
19.07.2016 08:36 19,3 C 85 % 1020,3 hPa 0,0 l/m 4,9 km/h (1 Bft) S 179 2 min 0,000 mm 1,6 UV-I 413 W/m 16,7 C 19,3 C 8,0 km/h (2 Bft) 95,74 %
19.07.2016 08:38 19,3 C 85 % 1020,3 hPa 0,0 l/m 4,4 km/h (1 Bft) S-SW 206 2 min 0,000 mm 1,7 UV-I 416 W/m 16,7 C 19,3 C 6,4 km/h (2 Bft) 89,36 %
19.07.2016 08:40 19,5 C 85 % 1020,3 hPa 0,0 l/m 3,0 km/h (1 Bft) S 180 2 min 0,000 mm 1,7 UV-I 420 W/m 16,9 C 19,5 C 6,4 km/h (2 Bft) 100,00 %
19.07.2016 08:42 19,7 C 84 % 1020,3 hPa 0,0 l/m 4,0 km/h (1 Bft) W-SW 238 2 min 0,000 mm 1,8 UV-I 426 W/m 16,9 C 19,7 C 6,4 km/h (2 Bft) 92,45 %
19.07.2016 08:44 19,8 C 84 % 1020,3 hPa 0,0 l/m 2,8 km/h (1 Bft) SW 221 2 min 0,000 mm 1,8 UV-I 430 W/m 17,0 C 19,8 C 4,8 km/h (1 Bft) 95,74 %
19.07.2016 08:46 19,9 C 83 % 1020,3 hPa 0,0 l/m 2,0 km/h (1 Bft) SW 221 2 min 0,000 mm 1,9 UV-I 437 W/m 16,9 C 19,9 C 4,8 km/h (1 Bft) 95,74 %
19.07.2016 08:48 20,1 C 84 % 1020,3 hPa 0,0 l/m 3,3 km/h (1 Bft) SW 229 2 min 0,000 mm 1,9 UV-I 443 W/m 17,3 C 20,1 C 4,8 km/h (1 Bft) 95,74 %
19.07.2016 08:50 20,2 C 83 % 1020,3 hPa 0,0 l/m 3,0 km/h (1 Bft) S-SW 201 2 min 0,000 mm 1,9 UV-I 448 W/m 17,2 C 20,2 C 4,8 km/h (1 Bft) 97,87 %
19.07.2016 08:52 20,2 C 83 % 1020,3 hPa 0,0 l/m 2,0 km/h (1 Bft) W-NW 287 2 min 0,000 mm 2,0 UV-I 454 W/m 17,2 C 20,2 C 4,8 km/h (1 Bft) 97,87 %
19.07.2016 08:54 20,3 C 83 % 1020,3 hPa 0,0 l/m 2,0 km/h (1 Bft) W-NW 287 2 min 0,000 mm 2,0 UV-I 457 W/m 17,3 C 20,3 C 4,8 km/h (1 Bft) 97,87 %
19.07.2016 08:56 20,5 C 83 % 1020,3 hPa 0,0 l/m 0,6 km/h (0 Bft) W-NW 287 2 min 0,000 mm 2,1 UV-I 458 W/m 17,5 C 20,5 C 1,6 km/h (1 Bft) 94,00 %
19.07.2016 08:58 20,6 C 81 % 1020,3 hPa 0,0 l/m 2,5 km/h (1 Bft) W-SW 242 2 min 0,000 mm 2,1 UV-I 459 W/m 17,2 C 20,6 C 6,4 km/h (2 Bft) 97,87 %
19.07.2016 09:00 20,5 C 81 % 1020,3 hPa 0,0 l/m 2,4 km/h (1 Bft) S-SW 202 2 min 0,229 mm 2,2 UV-I 456 W/m 17,1 C 20,5 C 6,4 km/h (2 Bft) 97,87 %
19.07.2016 09:02 20,4 C 83 % 1020,3 hPa 0,0 l/m 3,2 km/h (1 Bft) W-SW 250 2 min 0,000 mm 2,2 UV-I 455 W/m 17,4 C 20,4 C 4,8 km/h (1 Bft) 97,37 %
19.07.2016 09:04 20,6 C 81 % 1020,4 hPa 0,0 l/m 2,9 km/h (1 Bft) SW 219 2 min 0,000 mm 2,3 UV-I 452 W/m 17,2 C 20,6 C 4,8 km/h (1 Bft) 93,62 %
19.07.2016 09:06 20,7 C 79 % 1020,4 hPa 0,0 l/m 4,9 km/h (1 Bft) S 188 2 min 0,000 mm 2,3 UV-I 446 W/m 16,9 C 20,7 C 9,7 km/h (2 Bft) 100,00 %
19.07.2016 09:08 20,6 C 80 % 1020,4 hPa 0,0 l/m 3,7 km/h (1 Bft) S 178 2 min 0,000 mm 2,4 UV-I 442 W/m 17,0 C 20,6 C 8,0 km/h (2 Bft) 100,00 %
19.07.2016 09:10 20,6 C 81 % 1020,4 hPa 0,0 l/m 3,4 km/h (1 Bft) W-SW 252 2 min 0,000 mm 2,4 UV-I 436 W/m 17,2 C 20,6 C 6,4 km/h (2 Bft) 97,87 %
19.07.2016 09:12 20,7 C 80 % 1020,4 hPa 0,0 l/m 2,5 km/h (1 Bft) SW 225 2 min 0,000 mm 2,5 UV-I 429 W/m 17,1 C 20,7 C 4,8 km/h (1 Bft) 100,00 %
19.07.2016 09:14 20,8 C 82 % 1020,3 hPa 0,0 l/m 2,1 km/h (1 Bft) W-SW 247 2 min 0,000 mm 2,5 UV-I 426 W/m 17,6 C 20,8 C 4,8 km/h (1 Bft) 100,00 %
19.07.2016 09:16 21,0 C 76 % 1020,4 hPa 0,0 l/m 2,9 km/h (1 Bft) W-SW 239 2 min 0,000 mm 2,6 UV-I 422 W/m 16,6 C 21,0 C 4,8 km/h (1 Bft) 100,00 %
19.07.2016 09:18 21,0 C 77 % 1020,4 hPa 0,0 l/m 4,4 km/h (1 Bft) W-SW 253 2 min 0,000 mm 2,6 UV-I 418 W/m 16,8 C 21,0 C 6,4 km/h (2 Bft) 95,74 %
19.07.2016 09:20 21,1 C 78 % 1020,4 hPa 0,0 l/m 4,6 km/h (1 Bft) SW 223 2 min 0,000 mm 2,7 UV-I 417 W/m 17,1 C 21,1 C 6,4 km/h (2 Bft) 95,74 %
19.07.2016 09:22 21,0 C 78 % 1020,4 hPa 0,0 l/m 3,2 km/h (1 Bft) S 189 2 min 0,000 mm 2,7 UV-I 418 W/m 17,0 C 21,0 C 4,8 km/h (1 Bft) 100,00 %
19.07.2016 09:24 21,1 C 78 % 1020,4 hPa 0,0 l/m 2,7 km/h (1 Bft) W-SW 252 2 min 0,000 mm 2,8 UV-I 421 W/m 17,1 C 21,1 C 6,4 km/h (2 Bft) 95,74 %
19.07.2016 09:26 21,3 C 80 % 1020,4 hPa 0,0 l/m 2,8 km/h (1 Bft) W 279 2 min 0,000 mm 2,9 UV-I 426 W/m 17,7 C 21,3 C 4,8 km/h (1 Bft) 97,37 %
19.07.2016 09:28 21,5 C 80 % 1020,4 hPa 0,0 l/m 2,3 km/h (1 Bft) W 276 2 min 0,000 mm 2,9 UV-I 437 W/m 17,9 C 21,5 C 4,8 km/h (1 Bft) 100,00 %
19.07.2016 09:30 21,7 C 79 % 1020,4 hPa 0,0 l/m 3,0 km/h (1 Bft) W-SW 245 2 min 0,000 mm 2,9 UV-I 445 W/m 17,9 C 21,7 C 6,4 km/h (2 Bft) 97,87 %
19.07.2016 09:32 21,9 C 74 % 1020,4 hPa 0,0 l/m 2,3 km/h (1 Bft) S-SW 207 2 min 0,000 mm 3,0 UV-I 461 W/m 17,0 C 21,9 C 6,4 km/h (2 Bft) 97,87 %
19.07.2016 09:34 21,9 C 77 % 1020,3 hPa 0,0 l/m 1,4 km/h (1 Bft) W-NW 286 2 min 0,000 mm 3,1 UV-I 478 W/m 17,7 C 21,9 C 4,8 km/h (1 Bft) 100,00 %
19.07.2016 09:36 21,9 C 75 % 1020,3 hPa 0,0 l/m 2,9 km/h (1 Bft) W-NW 290 2 min 0,000 mm 3,1 UV-I 495 W/m 17,3 C 21,9 C 6,4 km/h (2 Bft) 95,74 %
19.07.2016 09:38 22,0 C 76 % 1020,3 hPa 0,0 l/m 2,6 km/h (1 Bft) W 268 2 min 0,000 mm 3,1 UV-I 513 W/m 17,6 C 22,0 C 6,4 km/h (2 Bft) 100,00 %
19.07.2016 09:40 22,0 C 75 % 1020,3 hPa 0,0 l/m 3,3 km/h (1 Bft) W 273 2 min 0,000 mm 3,2 UV-I 531 W/m 17,4 C 22,0 C 6,4 km/h (2 Bft) 97,87 %
19.07.2016 09:42 22,0 C 74 % 1020,3 hPa 0,0 l/m 2,6 km/h (1 Bft) W-NW 298 2 min 0,000 mm 3,3 UV-I 548 W/m 17,1 C 22,0 C 4,8 km/h (1 Bft) 97,87 %
19.07.2016 09:44 22,1 C 77 % 1020,3 hPa 0,0 l/m 1,1 km/h (1 Bft) NW 310 2 min 0,000 mm 3,3 UV-I 563 W/m 17,9 C 22,1 C 3,2 km/h (1 Bft) 97,87 %
19.07.2016 09:46 22,2 C 72 % 1020,3 hPa 0,0 l/m 2,6 km/h (1 Bft) NW 311 2 min 0,000 mm 3,4 UV-I 576 W/m 16,9 C 22,2 C 4,8 km/h (1 Bft) 98,00 %
19.07.2016 09:48 22,3 C 73 % 1020,2 hPa 0,0 l/m 3,0 km/h (1 Bft) W-NW 282 2 min 0,000 mm 3,4 UV-I 589 W/m 17,2 C 22,3 C 4,8 km/h (1 Bft) 97,87 %
19.07.2016 09:50 22,4 C 71 % 1020,1 hPa 0,0 l/m 1,3 km/h (1 Bft) W-NW 284 2 min 0,000 mm 3,5 UV-I 599 W/m 16,9 C 22,4 C 3,2 km/h (1 Bft) 100,00 %
19.07.2016 09:52 22,4 C 73 % 1020,1 hPa 0,0 l/m 1,3 km/h (1 Bft) SW 234 2 min 0,000 mm 3,6 UV-I 603 W/m 17,3 C 22,4 C 4,8 km/h (1 Bft) 100,00 %
19.07.2016 09:54 22,5 C 72 % 1020,1 hPa 0,0 l/m 2,7 km/h (1 Bft) W-SW 258 2 min 0,000 mm 3,6 UV-I 609 W/m 17,2 C 22,5 C 4,8 km/h (1 Bft) 100,00 %
19.07.2016 09:56 22,5 C 73 % 1020,1 hPa 0,0 l/m 2,1 km/h (1 Bft) W 259 2 min 0,000 mm 3,7 UV-I 615 W/m 17,4 C 22,5 C 4,8 km/h (1 Bft) 100,00 %
19.07.2016 09:58 22,6 C 73 % 1020,1 hPa 0,0 l/m 3,5 km/h (1 Bft) W-SW 253 2 min 0,000 mm 3,8 UV-I 619 W/m 17,5 C 22,6 C 4,8 km/h (1 Bft) 97,87 %
19.07.2016 10:00 22,7 C 74 % 1020,1 hPa 0,0 l/m 2,4 km/h (1 Bft) W-SW 253 2 min 0,000 mm 3,8 UV-I 624 W/m 17,8 C 22,7 C 4,8 km/h (1 Bft) 100,00 %
19.07.2016 10:02 22,8 C 72 % 1020,1 hPa 0,0 l/m 1,0 km/h (0 Bft) SW 234 2 min 0,305 mm 3,9 UV-I 630 W/m 17,5 C 22,8 C 3,2 km/h (1 Bft) 100,00 %
19.07.2016 10:04 22,8 C 70 % 1020,1 hPa 0,0 l/m 3,2 km/h (1 Bft) W 270 2 min 0,000 mm 3,9 UV-I 634 W/m 17,0 C 22,8 C 4,8 km/h (1 Bft) 100,00 %
19.07.2016 10:06 22,8 C 69 % 1020,2 hPa 0,0 l/m 2,7 km/h (1 Bft) W 270 2 min 0,000 mm 3,9 UV-I 637 W/m 16,8 C 22,8 C 4,8 km/h (1 Bft) 100,00 %
19.07.2016 10:08 22,9 C 69 % 1020,2 hPa 0,0 l/m 3,0 km/h (1 Bft) W 271 2 min 0,000 mm 4,0 UV-I 642 W/m 16,9 C 22,9 C 6,4 km/h (2 Bft) 97,87 %
19.07.2016 10:10 22,9 C 66 % 1020,2 hPa 0,0 l/m 3,6 km/h (1 Bft) SW 223 2 min 0,000 mm 4,1 UV-I 645 W/m 16,2 C 22,9 C 6,4 km/h (2 Bft) 100,00 %
19.07.2016 10:12 23,0 C 67 % 1020,2 hPa 0,0 l/m 3,6 km/h (1 Bft) W-SW 245 2 min 0,000 mm 4,1 UV-I 650 W/m 16,5 C 23,0 C 4,8 km/h (1 Bft) 95,74 %
19.07.2016 10:14 23,2 C 68 % 1020,2 hPa 0,0 l/m 4,2 km/h (1 Bft) W-SW 246 2 min 0,000 mm 4,2 UV-I 655 W/m 17,0 C 23,2 C 6,4 km/h (2 Bft) 97,87 %
19.07.2016 10:16 23,3 C 63 % 1020,2 hPa 0,0 l/m 4,9 km/h (1 Bft) W 262 2 min 0,000 mm 4,2 UV-I 661 W/m 15,9 C 23,3 C 6,4 km/h (2 Bft) 100,00 %
19.07.2016 10:18 23,3 C 61 % 1020,2 hPa 0,0 l/m 5,5 km/h (1 Bft) W-SW 248 2 min 0,000 mm 4,3 UV-I 665 W/m 15,3 C 23,3 C 11,3 km/h (2 Bft) 100,00 %
19.07.2016 10:20 23,4 C 64 % 1020,2 hPa 0,0 l/m 6,4 km/h (2 Bft) SW 229 2 min 0,000 mm 4,4 UV-I 670 W/m 16,2 C 23,4 C 11,3 km/h (2 Bft) 100,00 %
19.07.2016 10:22 23,4 C 62 % 1020,1 hPa 0,0 l/m 3,0 km/h (1 Bft) SW 215 2 min 0,000 mm 4,4 UV-I 673 W/m 15,7 C 23,4 C 6,4 km/h (2 Bft) 98,00 %
19.07.2016 10:24 23,4 C 65 % 1020,1 hPa 0,0 l/m 2,6 km/h (1 Bft) N-NW 344 2 min 0,000 mm 4,5 UV-I 678 W/m 16,4 C 23,4 C 4,8 km/h (1 Bft) 97,37 %
19.07.2016 10:26 23,7 C 63 % 1020,1 hPa 0,0 l/m 1,7 km/h (1 Bft) N-NW 331 2 min 0,000 mm 4,6 UV-I 684 W/m 16,2 C 23,7 C 6,4 km/h (2 Bft) 97,87 %
19.07.2016 10:28 23,9 C 64 % 1020,1 hPa 0,0 l/m 3,5 km/h (1 Bft) N 360 2 min 0,000 mm 4,6 UV-I 687 W/m 16,7 C 23,9 C 8,0 km/h (2 Bft) 100,00 %
19.07.2016 10:30 23,9 C 63 % 1020,1 hPa 0,0 l/m 1,9 km/h (1 Bft) NW 321 2 min 0,000 mm 4,7 UV-I 692 W/m 16,4 C 23,9 C 4,8 km/h (1 Bft) 97,92 %
19.07.2016 10:32 23,9 C 59 % 1020,1 hPa 0,0 l/m 3,4 km/h (1 Bft) N-NO 15 2 min 0,000 mm 4,7 UV-I 697 W/m 15,4 C 23,9 C 6,4 km/h (2 Bft) 97,87 %
19.07.2016 10:34 24,1 C 54 % 1020,1 hPa 0,0 l/m 3,3 km/h (1 Bft) NO 41 2 min 0,000 mm 4,7 UV-I 699 W/m 14,2 C 24,1 C 6,4 km/h (2 Bft) 97,87 %
19.07.2016 10:36 24,2 C 56 % 1020,1 hPa 0,0 l/m 0,3 km/h (0 Bft) NO 41 2 min 0,000 mm 4,8 UV-I 704 W/m 14,9 C 24,2 C 1,6 km/h (1 Bft) 97,92 %
19.07.2016 10:38 24,2 C 57 % 1020,1 hPa 0,0 l/m 1,1 km/h (1 Bft) NO 35 2 min 0,000 mm 4,9 UV-I 704 W/m 15,1 C 24,2 C 3,2 km/h (1 Bft) 98,00 %
19.07.2016 10:40 24,2 C 57 % 1020,0 hPa 0,0 l/m 2,0 km/h (1 Bft) NW 309 2 min 0,000 mm 4,9 UV-I 708 W/m 15,1 C 24,2 C 4,8 km/h (1 Bft) 95,83 %
19.07.2016 10:42 24,1 C 60 % 1020,0 hPa 0,0 l/m 4,3 km/h (1 Bft) W-SW 248 2 min 0,000 mm 5,0 UV-I 714 W/m 15,8 C 24,1 C 8,0 km/h (2 Bft) 97,87 %
19.07.2016 10:44 24,1 C 58 % 1020,0 hPa 0,0 l/m 2,7 km/h (1 Bft) W-SW 248 2 min 0,000 mm 5,0 UV-I 718 W/m 15,3 C 24,1 C 4,8 km/h (1 Bft) 97,87 %
19.07.2016 10:46 24,1 C 60 % 1020,0 hPa 0,0 l/m 2,1 km/h (1 Bft) N 360 2 min 0,000 mm 5,1 UV-I 721 W/m 15,8 C 24,1 C 4,8 km/h (1 Bft) 95,74 %
19.07.2016 10:48 24,3 C 57 % 1020,0 hPa 0,0 l/m 2,2 km/h (1 Bft) N-NW 347 2 min 0,000 mm 5,2 UV-I 726 W/m 15,2 C 24,3 C 4,8 km/h (1 Bft) 93,62 %
19.07.2016 10:50 24,4 C 58 % 1020,1 hPa 0,0 l/m 2,3 km/h (1 Bft) NW 323 2 min 0,000 mm 5,2 UV-I 727 W/m 15,6 C 24,4 C 6,4 km/h (2 Bft) 97,87 %
19.07.2016 10:52 24,5 C 57 % 1020,0 hPa 0,0 l/m 3,7 km/h (1 Bft) N-NO 22 2 min 0,000 mm 5,2 UV-I 729 W/m 15,4 C 24,5 C 8,0 km/h (2 Bft) 97,87 %
19.07.2016 10:54 24,7 C 58 % 1020,0 hPa 0,0 l/m 2,7 km/h (1 Bft) NW 317 2 min 0,000 mm 5,3 UV-I 733 W/m 15,9 C 24,7 C 8,0 km/h (2 Bft) 97,37 %
19.07.2016 10:56 24,7 C 58 % 1020,0 hPa 0,0 l/m 3,3 km/h (1 Bft) N-NO 19 2 min 0,000 mm 5,3 UV-I 737 W/m 15,9 C 24,7 C 8,0 km/h (2 Bft) 97,87 %
19.07.2016 10:58 24,8 C 58 % 1020,1 hPa 0,0 l/m 3,8 km/h (1 Bft) N-NO 22 2 min 0,000 mm 5,4 UV-I 741 W/m 16,0 C 24,8 C 8,0 km/h (2 Bft) 95,74 %
19.07.2016 11:00 24,9 C 58 % 1020,1 hPa 0,0 l/m 4,0 km/h (1 Bft) N-NO 19 2 min 0,432 mm 5,5 UV-I 745 W/m 16,1 C 24,9 C 6,4 km/h (2 Bft) 97,87 %
19.07.2016 11:02 24,9 C 55 % 1020,1 hPa 0,0 l/m 4,1 km/h (1 Bft) N-NW 337 2 min 0,000 mm 5,5 UV-I 751 W/m 15,2 C 24,9 C 8,0 km/h (2 Bft) 100,00 %
19.07.2016 11:04 24,9 C 52 % 1020,1 hPa 0,0 l/m 2,9 km/h (1 Bft) N 9 2 min 0,000 mm 5,6 UV-I 754 W/m 14,4 C 24,9 C 4,8 km/h (1 Bft) 100,00 %
19.07.2016 11:06 24,9 C 52 % 1020,1 hPa 0,0 l/m 1,9 km/h (1 Bft) NO 38 2 min 0,000 mm 5,7 UV-I 760 W/m 14,4 C 24,9 C 4,8 km/h (1 Bft) 97,87 %
19.07.2016 11:08 25,1 C 56 % 1020,0 hPa 0,0 l/m 1,7 km/h (1 Bft) N-NW 344 2 min 0,000 mm 5,7 UV-I 764 W/m 15,7 C 25,1 C 6,4 km/h (2 Bft) 100,00 %
19.07.2016 11:10 25,2 C 53 % 1020,0 hPa 0,0 l/m 5,5 km/h (1 Bft) N-NW 338 2 min 0,000 mm 5,7 UV-I 769 W/m 14,9 C 25,2 C 12,9 km/h (3 Bft) 95,74 %
19.07.2016 11:12 25,2 C 53 % 1020,0 hPa 0,0 l/m 3,7 km/h (1 Bft) N-NW 327 2 min 0,000 mm 5,3 UV-I 771 W/m 14,9 C 25,2 C 11,3 km/h (2 Bft) 97,87 %
19.07.2016 11:14 25,2 C 54 % 1020,0 hPa 0,0 l/m 3,9 km/h (1 Bft) N 360 2 min 0,000 mm 5,8 UV-I 771 W/m 15,2 C 25,2 C 9,7 km/h (2 Bft) 97,92 %
19.07.2016 11:16 25,2 C 54 % 1020,0 hPa 0,0 l/m 6,3 km/h (2 Bft) N-NW 339 2 min 0,000 mm 5,9 UV-I 775 W/m 15,2 C 25,2 C 12,9 km/h (3 Bft) 100,00 %
19.07.2016 11:18 25,2 C 54 % 1020,0 hPa 0,0 l/m 3,3 km/h (1 Bft) N-NW 333 2 min 0,000 mm 5,9 UV-I 776 W/m 15,2 C 25,2 C 8,0 km/h (2 Bft) 100,00 %
19.07.2016 11:20 25,1 C 55 % 1020,1 hPa 0,0 l/m 1,7 km/h (1 Bft) NW 309 2 min 0,000 mm 5,3 UV-I 779 W/m 15,4 C 25,1 C 3,2 km/h (1 Bft) 100,00 %
19.07.2016 11:22 25,2 C 51 % 1020,1 hPa 0,0 l/m 2,5 km/h (1 Bft) N 349 2 min 0,000 mm 5,9 UV-I 775 W/m 14,3 C 25,2 C 4,8 km/h (1 Bft) 100,00 %
19.07.2016 11:24 25,2 C 51 % 1020,0 hPa 0,0 l/m 4,2 km/h (1 Bft) NW 309 2 min 0,000 mm 6,0 UV-I 782 W/m 14,3 C 25,2 C 8,0 km/h (2 Bft) 100,00 %
19.07.2016 11:26 25,1 C 52 % 1020,0 hPa 0,0 l/m 3,5 km/h (1 Bft) N-NO 22 2 min 0,000 mm 6,1 UV-I 789 W/m 14,5 C 25,1 C 8,0 km/h (2 Bft) 97,87 %
19.07.2016 11:28 25,1 C 51 % 1020,0 hPa 0,0 l/m 3,3 km/h (1 Bft) N-NW 344 2 min 0,000 mm 6,1 UV-I 794 W/m 14,2 C 25,1 C 8,0 km/h (2 Bft) 93,62 %
19.07.2016 11:30 25,0 C 53 % 1020,0 hPa 0,0 l/m 4,3 km/h (1 Bft) W-SW 247 2 min 0,000 mm 6,2 UV-I 799 W/m 14,7 C 25,0 C 6,4 km/h (2 Bft) 97,87 %
19.07.2016 11:32 24,9 C 52 % 1020,1 hPa 0,0 l/m 3,8 km/h (1 Bft) NW 304 2 min 0,000 mm 6,2 UV-I 801 W/m 14,4 C 24,9 C 6,4 km/h (2 Bft) 97,87 %
19.07.2016 11:34 24,9 C 54 % 1020,0 hPa 0,0 l/m 1,5 km/h (1 Bft) NW 323 2 min 0,000 mm 6,2 UV-I 800 W/m 14,9 C 24,9 C 3,2 km/h (1 Bft) 97,87 %
19.07.2016 11:36 24,9 C 53 % 1020,0 hPa 0,0 l/m 3,4 km/h (1 Bft) S-SO 165 2 min 0,000 mm 6,2 UV-I 802 W/m 14,6 C 24,9 C 12,9 km/h (3 Bft) 100,00 %
19.07.2016 11:38 24,9 C 53 % 1020,0 hPa 0,0 l/m 4,6 km/h (1 Bft) SO 135 2 min 0,000 mm 6,3 UV-I 801 W/m 14,6 C 24,9 C 6,4 km/h (2 Bft) 100,00 %
19.07.2016 11:40 25,1 C 54 % 1020,0 hPa 0,0 l/m 3,5 km/h (1 Bft) S-SO 160 2 min 0,000 mm 6,2 UV-I 799 W/m 15,1 C 25,1 C 8,0 km/h (2 Bft) 100,00 %
19.07.2016 11:42 25,2 C 51 % 1020,0 hPa 0,0 l/m 2,5 km/h (1 Bft) S-SO 159 2 min 0,000 mm 6,1 UV-I 800 W/m 14,3 C 25,2 C 6,4 km/h (2 Bft) 100,00 %
19.07.2016 11:44 25,1 C 54 % 1020,0 hPa 0,0 l/m 3,1 km/h (1 Bft) S 178 2 min 0,000 mm 6,2 UV-I 804 W/m 15,1 C 25,1 C 6,4 km/h (2 Bft) 97,87 %
19.07.2016 11:46 25,1 C 51 % 1020,0 hPa 0,0 l/m 1,9 km/h (1 Bft) S 178 2 min 0,000 mm 6,3 UV-I 814 W/m 14,2 C 25,1 C 3,2 km/h (1 Bft) 100,00 %
19.07.2016 11:48 25,1 C 54 % 1020,0 hPa 0,0 l/m 3,5 km/h (1 Bft) W-NW 286 2 min 0,000 mm 6,4 UV-I 816 W/m 15,1 C 25,1 C 6,4 km/h (2 Bft) 100,00 %
19.07.2016 11:50 25,2 C 52 % 1020,0 hPa 0,0 l/m 4,7 km/h (1 Bft) W-SW 250 2 min 0,000 mm 6,4 UV-I 821 W/m 14,6 C 25,2 C 14,5 km/h (3 Bft) 100,00 %
19.07.2016 11:52 25,2 C 51 % 1020,0 hPa 0,0 l/m 8,3 km/h (2 Bft) S 180 2 min 0,000 mm 6,5 UV-I 824 W/m 14,3 C 24,7 C 12,9 km/h (3 Bft) 100,00 %
19.07.2016 11:54 25,2 C 49 % 1020,0 hPa 0,0 l/m 3,9 km/h (1 Bft) S-SW 196 2 min 0,000 mm 6,5 UV-I 831 W/m 13,7 C 25,2 C 8,0 km/h (2 Bft) 97,87 %
19.07.2016 11:56 25,2 C 50 % 1019,9 hPa 0,0 l/m 5,0 km/h (1 Bft) W 260 2 min 0,000 mm 6,5 UV-I 801 W/m 14,0 C 25,2 C 9,7 km/h (2 Bft) 100,00 %
19.07.2016 11:58 25,4 C 51 % 1020,0 hPa 0,0 l/m 8,9 km/h (2 Bft) S-SW 211 2 min 0,000 mm 6,5 UV-I 838 W/m 14,5 C 24,8 C 14,5 km/h (3 Bft) 100,00 %
19.07.2016 12:00 25,5 C 49 % 1020,0 hPa 0,0 l/m 8,9 km/h (2 Bft) W 264 2 min 0,533 mm 6,6 UV-I 840 W/m 14,0 C 24,9 C 14,5 km/h (3 Bft) 100,00 %
19.07.2016 12:02 25,3 C 50 % 1020,0 hPa 0,0 l/m 3,1 km/h (1 Bft) SW 235 2 min 0,000 mm 6,6 UV-I 842 W/m 14,1 C 25,3 C 9,7 km/h (2 Bft) 97,87 %
19.07.2016 12:04 25,3 C 53 % 1020,0 hPa 0,0 l/m 2,2 km/h (1 Bft) W 259 2 min 0,000 mm 6,6 UV-I 848 W/m 15,0 C 25,3 C 4,8 km/h (1 Bft) 97,87 %
19.07.2016 12:06 25,6 C 50 % 1019,9 hPa 0,0 l/m 6,7 km/h (2 Bft) SW 223 2 min 0,000 mm 6,7 UV-I 855 W/m 14,4 C 25,5 C 12,9 km/h (3 Bft) 100,00 %
19.07.2016 12:08 25,6 C 50 % 1019,9 hPa 0,0 l/m 4,6 km/h (1 Bft) W-SW 247 2 min 0,000 mm 6,7 UV-I 859 W/m 14,4 C 25,6 C 14,5 km/h (3 Bft) 100,00 %
19.07.2016 12:10 25,5 C 49 % 1019,9 hPa 0,0 l/m 3,0 km/h (1 Bft) W-SW 252 2 min 0,000 mm 6,7 UV-I 861 W/m 14,0 C 25,5 C 11,3 km/h (2 Bft) 100,00 %
19.07.2016 12:12 25,4 C 48 % 1019,9 hPa 0,0 l/m 1,9 km/h (1 Bft) SW 217 2 min 0,000 mm 6,7 UV-I 858 W/m 13,6 C 25,4 C 3,2 km/h (1 Bft) 95,74 %
19.07.2016 12:14 25,6 C 48 % 1019,9 hPa 0,0 l/m 5,0 km/h (1 Bft) W-SW 252 2 min 0,000 mm 6,7 UV-I 860 W/m 13,8 C 25,6 C 16,1 km/h (3 Bft) 97,87 %
19.07.2016 12:16 25,5 C 49 % 1019,8 hPa 0,0 l/m 7,3 km/h (2 Bft) W-SW 242 2 min 0,000 mm 6,7 UV-I 860 W/m 14,0 C 25,3 C 17,7 km/h (3 Bft) 97,87 %
19.07.2016 12:18 25,6 C 49 % 1019,8 hPa 0,0 l/m 10,2 km/h (2 Bft) W-NW 282 2 min 0,000 mm 6,7 UV-I 859 W/m 14,1 C 24,8 C 16,1 km/h (3 Bft) 100,00 %
19.07.2016 12:20 25,5 C 48 % 1019,7 hPa 0,0 l/m 7,2 km/h (2 Bft) S-SW 203 2 min 0,000 mm 6,7 UV-I 852 W/m 13,7 C 25,3 C 11,3 km/h (2 Bft) 100,00 %
19.07.2016 12:22 25,5 C 50 % 1019,7 hPa 0,0 l/m 10,5 km/h (2 Bft) S-SO 164 2 min 0,000 mm 6,7 UV-I 853 W/m 14,3 C 24,6 C 17,7 km/h (3 Bft) 97,87 %
19.07.2016 12:24 25,8 C 55 % 1019,8 hPa 0,0 l/m 8,3 km/h (2 Bft) W 259 2 min 0,000 mm 6,7 UV-I 853 W/m 16,1 C 25,4 C 22,5 km/h (4 Bft) 95,74 %
19.07.2016 12:26 25,9 C 52 % 1019,8 hPa 0,0 l/m 5,8 km/h (2 Bft) W 281 2 min 0,000 mm 6,7 UV-I 854 W/m 15,3 C 25,9 C 11,3 km/h (2 Bft) 97,87 %
19.07.2016 12:28 25,9 C 50 % 1019,8 hPa 0,0 l/m 3,4 km/h (1 Bft) W 262 2 min 0,000 mm 6,7 UV-I 855 W/m 14,7 C 25,9 C 4,8 km/h (1 Bft) 97,87 %
19.07.2016 12:30 26,2 C 51 % 1019,8 hPa 0,0 l/m 3,1 km/h (1 Bft) NW 321 2 min 0,000 mm 6,8 UV-I 867 W/m 15,2 C 26,2 C 9,7 km/h (2 Bft) 98,00 %
19.07.2016 12:32 26,3 C 49 % 1019,8 hPa 0,0 l/m 6,2 km/h (2 Bft) W-NW 288 2 min 0,000 mm 6,8 UV-I 879 W/m 14,7 C 26,3 C 14,5 km/h (3 Bft) 95,74 %
19.07.2016 12:34 26,2 C 47 % 1019,8 hPa 0,0 l/m 3,9 km/h (1 Bft) N-NO 33 2 min 0,000 mm 6,8 UV-I 880 W/m 14,0 C 26,2 C 6,4 km/h (2 Bft) 97,87 %
19.07.2016 12:36 25,9 C 49 % 1019,8 hPa 0,0 l/m 1,6 km/h (1 Bft) NW 322 2 min 0,000 mm 6,8 UV-I 874 W/m 14,4 C 25,9 C 3,2 km/h (1 Bft) 97,22 %
19.07.2016 12:38 25,8 C 48 % 1019,7 hPa 0,0 l/m 3,6 km/h (1 Bft) W-SW 247 2 min 0,000 mm 6,0 UV-I 874 W/m 13,9 C 25,8 C 6,4 km/h (2 Bft) 98,00 %
19.07.2016 12:40 25,7 C 48 % 1019,7 hPa 0,0 l/m 4,2 km/h (1 Bft) S-SW 195 2 min 0,000 mm 6,3 UV-I 881 W/m 13,9 C 25,7 C 6,4 km/h (2 Bft) 95,74 %
19.07.2016 12:42 25,6 C 48 % 1019,8 hPa 0,0 l/m 2,3 km/h (1 Bft) W 261 2 min 0,000 mm 6,7 UV-I 893 W/m 13,8 C 25,6 C 4,8 km/h (1 Bft) 95,74 %
19.07.2016 12:44 25,7 C 50 % 1019,7 hPa 0,0 l/m 6,8 km/h (2 Bft) SW 223 2 min 0,000 mm 6,9 UV-I 906 W/m 14,5 C 25,6 C 16,1 km/h (3 Bft) 93,62 %
19.07.2016 12:46 25,7 C 49 % 1019,7 hPa 0,0 l/m 7,0 km/h (2 Bft) W 273 2 min 0,000 mm 6,9 UV-I 900 W/m 14,2 C 25,6 C 11,3 km/h (2 Bft) 97,87 %
19.07.2016 12:48 25,8 C 56 % 1019,7 hPa 0,0 l/m 2,6 km/h (1 Bft) W-SW 252 2 min 0,000 mm 6,9 UV-I 891 W/m 16,3 C 25,8 C 6,4 km/h (2 Bft) 95,74 %
19.07.2016 12:50 26,2 C 54 % 1019,6 hPa 0,0 l/m 4,2 km/h (1 Bft) N-NO 15 2 min 0,000 mm 6,9 UV-I 887 W/m 16,1 C 26,2 C 6,4 km/h (2 Bft) 92,00 %
19.07.2016 12:52 26,7 C 50 % 1019,6 hPa 0,0 l/m 5,3 km/h (1 Bft) W 279 2 min 0,000 mm 6,8 UV-I 876 W/m 15,4 C 26,7 C 11,3 km/h (2 Bft) 97,87 %
19.07.2016 12:54 26,7 C 50 % 1019,6 hPa 0,0 l/m 4,1 km/h (1 Bft) W-NW 283 2 min 0,000 mm 6,9 UV-I 878 W/m 15,4 C 26,7 C 9,7 km/h (2 Bft) 97,87 %
19.07.2016 12:56 26,6 C 54 % 1019,6 hPa 0,0 l/m 3,9 km/h (1 Bft) W 266 2 min 0,000 mm 7,0 UV-I 887 W/m 16,5 C 26,6 C 6,4 km/h (2 Bft) 97,87 %
19.07.2016 12:58 26,6 C 49 % 1019,6 hPa 0,0 l/m 2,9 km/h (1 Bft) NW 308 2 min 0,000 mm 7,0 UV-I 897 W/m 15,0 C 26,6 C 6,4 km/h (2 Bft) 100,00 %
19.07.2016 13:00 26,6 C 48 % 1019,6 hPa 0,0 l/m 1,6 km/h (1 Bft) N-NW 344 2 min 0,584 mm 7,0 UV-I 894 W/m 14,7 C 26,6 C 3,2 km/h (1 Bft) 100,00 %
19.07.2016 13:02 26,7 C 51 % 1019,6 hPa 0,0 l/m 2,6 km/h (1 Bft) W-SW 246 2 min 0,000 mm 6,9 UV-I 886 W/m 15,7 C 26,7 C 6,4 km/h (2 Bft) 95,74 %
19.07.2016 13:04 26,8 C 49 % 1019,6 hPa 0,0 l/m 2,6 km/h (1 Bft) N-NW 348 2 min 0,000 mm 6,8 UV-I 887 W/m 15,2 C 26,8 C 6,4 km/h (2 Bft) 95,74 %
19.07.2016 13:06 26,8 C 49 % 1019,6 hPa 0,0 l/m 5,7 km/h (1 Bft) W-NW 302 2 min 0,000 mm 7,0 UV-I 891 W/m 15,2 C 26,8 C 11,3 km/h (2 Bft) 100,00 %
19.07.2016 13:08 26,7 C 49 % 1019,6 hPa 0,0 l/m 3,0 km/h (1 Bft) NW 321 2 min 0,000 mm 7,1 UV-I 891 W/m 15,1 C 26,7 C 4,8 km/h (1 Bft) 100,00 %
19.07.2016 13:10 26,7 C 49 % 1019,6 hPa 0,0 l/m 3,3 km/h (1 Bft) N 360 2 min 0,000 mm 7,1 UV-I 886 W/m 15,1 C 26,7 C 6,4 km/h (2 Bft) 100,00 %
19.07.2016 13:12 26,6 C 46 % 1019,6 hPa 0,0 l/m 4,0 km/h (1 Bft) N-NO 24 2 min 0,000 mm 7,3 UV-I 911 W/m 14,0 C 26,6 C 12,9 km/h (3 Bft) 96,00 %
19.07.2016 13:14 26,4 C 50 % 1019,6 hPa 0,0 l/m 4,0 km/h (1 Bft) W-NW 302 2 min 0,000 mm 7,2 UV-I 922 W/m 15,1 C 26,4 C 9,7 km/h (2 Bft) 97,87 %
19.07.2016 13:16 26,6 C 49 % 1019,6 hPa 0,0 l/m 3,4 km/h (1 Bft) N-NW 328 2 min 0,000 mm 7,0 UV-I 914 W/m 15,0 C 26,6 C 9,7 km/h (2 Bft) 100,00 %
19.07.2016 13:18 26,8 C 50 % 1019,6 hPa 0,0 l/m 6,1 km/h (2 Bft) N-NO 13 2 min 0,000 mm 6,9 UV-I 912 W/m 15,5 C 26,8 C 12,9 km/h (3 Bft) 97,87 %
19.07.2016 13:20 27,0 C 51 % 1019,5 hPa 0,0 l/m 4,2 km/h (1 Bft) W-NW 293 2 min 0,000 mm 7,1 UV-I 912 W/m 16,0 C 27,0 C 11,3 km/h (2 Bft) 100,00 %
19.07.2016 13:22 27,2 C 46 % 1019,5 hPa 0,0 l/m 3,3 km/h (1 Bft) N 5 2 min 0,000 mm 7,1 UV-I 907 W/m 14,6 C 27,2 C 6,4 km/h (2 Bft) 100,00 %
19.07.2016 13:24 27,2 C 48 % 1019,5 hPa 0,0 l/m 4,6 km/h (1 Bft) N-NO 17 2 min 0,000 mm 7,1 UV-I 902 W/m 15,2 C 27,2 C 8,0 km/h (2 Bft) 100,00 %
19.07.2016 13:26 27,2 C 51 % 1019,5 hPa 0,0 l/m 2,2 km/h (1 Bft) NW 319 2 min 0,000 mm 7,1 UV-I 889 W/m 16,2 C 27,2 C 4,8 km/h (1 Bft) 100,00 %
19.07.2016 13:28 27,2 C 47 % 1019,5 hPa 0,0 l/m 3,6 km/h (1 Bft) N-NO 28 2 min 0,000 mm 7,0 UV-I 883 W/m 14,9 C 27,2 C 6,4 km/h (2 Bft) 100,00 %
19.07.2016 13:30 27,3 C 50 % 1019,4 hPa 0,0 l/m 3,3 km/h (1 Bft) N-NW 328 2 min 0,000 mm 6,9 UV-I 876 W/m 15,9 C 27,3 C 6,4 km/h (2 Bft) 98,00 %
19.07.2016 13:32 27,3 C 46 % 1019,4 hPa 0,0 l/m 4,3 km/h (1 Bft) W-NW 286 2 min 0,000 mm 7,0 UV-I 879 W/m 14,6 C 27,3 C 11,3 km/h (2 Bft) 100,00 %
19.07.2016 13:34 27,1 C 46 % 1019,5 hPa 0,0 l/m 8,1 km/h (2 Bft) S-SO 157 2 min 0,000 mm 7,0 UV-I 879 W/m 14,5 C 26,8 C 14,5 km/h (3 Bft) 97,87 %
19.07.2016 13:36 27,0 C 48 % 1019,5 hPa 0,0 l/m 10,3 km/h (2 Bft) W-SW 251 2 min 0,000 mm 6,9 UV-I 877 W/m 15,0 C 26,3 C 17,7 km/h (3 Bft) 97,87 %
19.07.2016 13:38 26,9 C 47 % 1019,5 hPa 0,0 l/m 5,8 km/h (2 Bft) S-SW 192 2 min 0,000 mm 6,9 UV-I 880 W/m 14,6 C 26,9 C 9,7 km/h (2 Bft) 97,87 %
19.07.2016 13:40 26,8 C 46 % 1019,5 hPa 0,0 l/m 8,0 km/h (2 Bft) W-SW 258 2 min 0,000 mm 7,0 UV-I 887 W/m 14,2 C 26,5 C 14,5 km/h (3 Bft) 97,87 %
19.07.2016 13:42 26,7 C 44 % 1019,5 hPa 0,0 l/m 7,4 km/h (2 Bft) W 270 2 min 0,000 mm 6,9 UV-I 899 W/m 13,4 C 26,5 C 14,5 km/h (3 Bft) 100,00 %
19.07.2016 13:44 26,6 C 46 % 1019,4 hPa 0,0 l/m 3,0 km/h (1 Bft) NW 310 2 min 0,000 mm 6,9 UV-I 922 W/m 14,0 C 26,6 C 9,7 km/h (2 Bft) 97,87 %
19.07.2016 13:46 26,5 C 46 % 1019,3 hPa 0,0 l/m 6,2 km/h (2 Bft) W 279 2 min 0,000 mm 6,9 UV-I 911 W/m 13,9 C 26,5 C 14,5 km/h (3 Bft) 97,44 %
19.07.2016 13:48 26,6 C 47 % 1019,4 hPa 0,0 l/m 8,1 km/h (2 Bft) W-SW 243 2 min 0,000 mm 7,0 UV-I 908 W/m 14,3 C 26,3 C 14,5 km/h (3 Bft) 100,00 %
19.07.2016 13:50 26,6 C 45 % 1019,3 hPa 0,0 l/m 6,6 km/h (2 Bft) S-SO 168 2 min 0,000 mm 7,0 UV-I 898 W/m 13,7 C 26,6 C 11,3 km/h (2 Bft) 100,00 %
19.07.2016 13:52 26,8 C 46 % 1019,3 hPa 0,0 l/m 5,2 km/h (1 Bft) W 263 2 min 0,000 mm 6,9 UV-I 881 W/m 14,2 C 26,8 C 14,5 km/h (3 Bft) 97,87 %
19.07.2016 13:54 26,9 C 45 % 1019,2 hPa 0,0 l/m 4,0 km/h (1 Bft) W-NW 299 2 min 0,000 mm 6,7 UV-I 863 W/m 13,9 C 26,9 C 8,0 km/h (2 Bft) 100,00 %
19.07.2016 13:56 27,1 C 48 % 1019,2 hPa 0,0 l/m 3,7 km/h (1 Bft) NW 313 2 min 0,000 mm 6,5 UV-I 843 W/m 15,1 C 27,1 C 6,4 km/h (2 Bft) 100,00 %
19.07.2016 13:58 27,3 C 47 % 1019,2 hPa 0,0 l/m 4,4 km/h (1 Bft) S-SW 213 2 min 0,000 mm 6,7 UV-I 869 W/m 15,0 C 27,3 C 11,3 km/h (2 Bft) 97,87 %
19.07.2016 14:00 27,4 C 49 % 1019,2 hPa 0,0 l/m 5,3 km/h (1 Bft) S-SW 209 2 min 0,610 mm 6,8 UV-I 874 W/m 15,7 C 27,4 C 12,9 km/h (3 Bft) 100,00 %
19.07.2016 14:02 27,3 C 44 % 1019,2 hPa 0,0 l/m 9,5 km/h (2 Bft) S-SW 211 2 min 0,000 mm 6,6 UV-I 861 W/m 14,0 C 26,8 C 17,7 km/h (3 Bft) 100,00 %
19.07.2016 14:04 27,2 C 47 % 1019,2 hPa 0,0 l/m 7,0 km/h (2 Bft) W-SW 248 2 min 0,000 mm 6,8 UV-I 880 W/m 14,9 C 27,1 C 12,9 km/h (3 Bft) 100,00 %
19.07.2016 14:06 27,1 C 44 % 1019,2 hPa 0,0 l/m 6,0 km/h (2 Bft) SW 230 2 min 0,000 mm 6,9 UV-I 886 W/m 13,8 C 27,1 C 9,7 km/h (2 Bft) 97,87 %
19.07.2016 14:08 27,2 C 44 % 1019,2 hPa 0,0 l/m 9,6 km/h (2 Bft) SW 218 2 min 0,000 mm 6,8 UV-I 880 W/m 13,9 C 26,7 C 14,5 km/h (3 Bft) 97,87 %
19.07.2016 14:10 27,1 C 47 % 1019,2 hPa 0,0 l/m 5,1 km/h (1 Bft) W-SW 237 2 min 0,000 mm 6,8 UV-I 874 W/m 14,8 C 27,1 C 8,0 km/h (2 Bft) 100,00 %
19.07.2016 14:12 27,1 C 43 % 1019,1 hPa 0,0 l/m 5,8 km/h (2 Bft) S-SW 193 2 min 0,000 mm 6,9 UV-I 883 W/m 13,4 C 27,1 C 12,9 km/h (3 Bft) 100,00 %
19.07.2016 14:14 27,2 C 47 % 1019,1 hPa 0,0 l/m 7,4 km/h (2 Bft) S 184 2 min 0,000 mm 6,9 UV-I 882 W/m 14,9 C 27,0 C 9,7 km/h (2 Bft) 100,00 %
19.07.2016 14:16 27,5 C 46 % 1019,1 hPa 0,0 l/m 6,8 km/h (2 Bft) W 261 2 min 0,000 mm 6,8 UV-I 868 W/m 14,8 C 27,4 C 14,5 km/h (3 Bft) 98,15 %
19.07.2016 14:18 27,4 C 43 % 1019,2 hPa 0,0 l/m 5,2 km/h (1 Bft) W 264 2 min 0,000 mm 6,8 UV-I 860 W/m 13,7 C 27,4 C 11,3 km/h (2 Bft) 95,74 %
19.07.2016 14:20 27,2 C 43 % 1019,1 hPa 0,0 l/m 2,2 km/h (1 Bft) S-SW 213 2 min 0,000 mm 6,8 UV-I 865 W/m 13,5 C 27,2 C 4,8 km/h (1 Bft) 95,74 %
19.07.2016 14:22 27,4 C 44 % 1019,1 hPa 0,0 l/m 9,1 km/h (2 Bft) W 273 2 min 0,000 mm 6,7 UV-I 861 W/m 14,0 C 26,9 C 14,5 km/h (3 Bft) 96,00 %
19.07.2016 14:24 27,4 C 49 % 1019,1 hPa 0,0 l/m 5,1 km/h (1 Bft) SW 234 2 min 0,000 mm 6,5 UV-I 852 W/m 15,7 C 27,4 C 8,0 km/h (2 Bft) 96,00 %
19.07.2016 14:26 27,6 C 46 % 1019,1 hPa 0,0 l/m 8,8 km/h (2 Bft) W-SW 244 2 min 0,000 mm 6,6 UV-I 860 W/m 14,9 C 27,2 C 14,5 km/h (3 Bft) 97,87 %
19.07.2016 14:28 27,7 C 42 % 1019,1 hPa 0,0 l/m 4,8 km/h (1 Bft) W 276 2 min 0,000 mm 6,6 UV-I 854 W/m 13,6 C 27,7 C 12,9 km/h (3 Bft) 97,87 %
19.07.2016 14:30 27,6 C 48 % 1019,1 hPa 0,0 l/m 2,2 km/h (1 Bft) W 265 2 min 0,000 mm 6,6 UV-I 853 W/m 15,6 C 27,6 C 4,8 km/h (1 Bft) 97,44 %
19.07.2016 14:32 27,5 C 43 % 1019,1 hPa 0,0 l/m 2,9 km/h (1 Bft) S 190 2 min 0,000 mm 6,5 UV-I 859 W/m 13,8 C 27,5 C 4,8 km/h (1 Bft) 93,62 %
19.07.2016 14:34 27,4 C 45 % 1019,2 hPa 0,0 l/m 6,5 km/h (2 Bft) W-SW 248 2 min 0,000 mm 6,3 UV-I 851 W/m 14,4 C 27,4 C 14,5 km/h (3 Bft) 97,87 %
19.07.2016 14:36 27,4 C 48 % 1019,1 hPa 0,0 l/m 7,0 km/h (2 Bft) NW 306 2 min 0,000 mm 6,2 UV-I 844 W/m 15,4 C 27,3 C 12,9 km/h (3 Bft) 97,87 %
19.07.2016 14:38 27,4 C 49 % 1019,1 hPa 0,0 l/m 1,4 km/h (1 Bft) SW 216 2 min 0,000 mm 6,2 UV-I 839 W/m 15,7 C 27,4 C 3,2 km/h (1 Bft) 97,87 %
19.07.2016 14:40 27,7 C 44 % 1019,0 hPa 0,0 l/m 4,2 km/h (1 Bft) SW 229 2 min 0,000 mm 6,2 UV-I 828 W/m 14,3 C 27,7 C 11,3 km/h (2 Bft) 97,87 %
19.07.2016 14:42 27,7 C 44 % 1019,0 hPa 0,0 l/m 8,6 km/h (2 Bft) W 267 2 min 0,000 mm 6,2 UV-I 822 W/m 14,3 C 27,3 C 14,5 km/h (3 Bft) 94,00 %
19.07.2016 14:44 27,5 C 47 % 1019,0 hPa 0,0 l/m 5,1 km/h (1 Bft) W-NW 292 2 min 0,000 mm 6,2 UV-I 827 W/m 15,2 C 27,5 C 14,5 km/h (3 Bft) 97,87 %
19.07.2016 14:46 27,4 C 46 % 1019,0 hPa 0,0 l/m 4,1 km/h (1 Bft) NW 317 2 min 0,000 mm 6,2 UV-I 831 W/m 14,7 C 27,4 C 9,7 km/h (2 Bft) 98,00 %
19.07.2016 14:48 27,6 C 45 % 1019,0 hPa 0,0 l/m 6,1 km/h (2 Bft) W-NW 302 2 min 0,000 mm 6,2 UV-I 827 W/m 14,6 C 27,6 C 11,3 km/h (2 Bft) 97,87 %
19.07.2016 14:50 27,7 C 45 % 1018,9 hPa 0,0 l/m 8,1 km/h (2 Bft) W 259 2 min 0,000 mm 6,1 UV-I 824 W/m 14,7 C 27,4 C 17,7 km/h (3 Bft) 95,74 %
19.07.2016 14:52 27,6 C 46 % 1019,0 hPa 0,0 l/m 8,1 km/h (2 Bft) W 260 2 min 0,000 mm 6,1 UV-I 821 W/m 14,9 C 27,3 C 16,1 km/h (3 Bft) 97,87 %
19.07.2016 14:54 27,7 C 46 % 1018,9 hPa 0,0 l/m 9,6 km/h (2 Bft) W-SW 247 2 min 0,000 mm 6,0 UV-I 814 W/m 15,0 C 27,2 C 20,9 km/h (4 Bft) 100,00 %
19.07.2016 14:56 27,7 C 44 % 1019,0 hPa 0,0 l/m 9,3 km/h (2 Bft) W-NW 300 2 min 0,000 mm 5,9 UV-I 813 W/m 14,3 C 27,2 C 14,5 km/h (3 Bft) 95,74 %
19.07.2016 14:58 27,6 C 45 % 1018,9 hPa 0,0 l/m 6,6 km/h (2 Bft) W-SW 252 2 min 0,000 mm 5,9 UV-I 809 W/m 14,6 C 27,6 C 11,3 km/h (2 Bft) 97,87 %
19.07.2016 15:00 27,5 C 42 % 1018,9 hPa 0,0 l/m 7,3 km/h (2 Bft) N-NW 342 2 min 0,000 mm 5,9 UV-I 818 W/m 13,4 C 27,3 C 16,1 km/h (3 Bft) 98,00 %
19.07.2016 15:02 27,4 C 42 % 1018,8 hPa 0,0 l/m 3,6 km/h (1 Bft) W-NW 299 2 min 0,609 mm 5,9 UV-I 823 W/m 13,3 C 27,4 C 9,7 km/h (2 Bft) 97,87 %
19.07.2016 15:04 27,4 C 45 % 1018,8 hPa 0,0 l/m 8,3 km/h (2 Bft) W 268 2 min 0,000 mm 5,7 UV-I 810 W/m 14,4 C 27,1 C 17,7 km/h (3 Bft) 100,00 %
19.07.2016 15:06 27,7 C 43 % 1018,8 hPa 0,0 l/m 9,2 km/h (2 Bft) W-SW 240 2 min 0,000 mm 5,6 UV-I 788 W/m 14,0 C 27,3 C 25,7 km/h (4 Bft) 97,87 %
19.07.2016 15:08 27,7 C 43 % 1018,7 hPa 0,0 l/m 5,7 km/h (1 Bft) S-SW 195 2 min 0,000 mm 5,7 UV-I 794 W/m 14,0 C 27,7 C 11,3 km/h (2 Bft) 100,00 %
19.07.2016 15:10 27,8 C 43 % 1018,8 hPa 0,0 l/m 8,0 km/h (2 Bft) W-SW 257 2 min 0,000 mm 5,7 UV-I 794 W/m 14,1 C 27,5 C 14,5 km/h (3 Bft) 100,00 %
19.07.2016 15:12 27,8 C 44 % 1018,7 hPa 0,0 l/m 4,2 km/h (1 Bft) W 277 2 min 0,000 mm 5,6 UV-I 792 W/m 14,4 C 27,8 C 14,5 km/h (3 Bft) 100,00 %
19.07.2016 15:14 27,8 C 43 % 1018,7 hPa 0,0 l/m 9,4 km/h (2 Bft) SW 233 2 min 0,000 mm 4,3 UV-I 784 W/m 14,1 C 27,3 C 17,7 km/h (3 Bft) 100,00 %
19.07.2016 15:16 27,8 C 43 % 1018,7 hPa 0,0 l/m 8,1 km/h (2 Bft) S-SW 199 2 min 0,000 mm 5,5 UV-I 778 W/m 14,1 C 27,5 C 12,9 km/h (3 Bft) 97,87 %
19.07.2016 15:18 27,7 C 44 % 1018,7 hPa 0,0 l/m 6,4 km/h (2 Bft) W-SW 239 2 min 0,000 mm 5,4 UV-I 771 W/m 14,3 C 27,7 C 11,3 km/h (2 Bft) 95,74 %
19.07.2016 15:20 27,6 C 45 % 1018,7 hPa 0,0 l/m 6,7 km/h (2 Bft) S-SW 200 2 min 0,000 mm 5,3 UV-I 770 W/m 14,6 C 27,6 C 11,3 km/h (2 Bft) 100,00 %
19.07.2016 15:22 27,6 C 44 % 1018,7 hPa 0,0 l/m 6,2 km/h (2 Bft) W 272 2 min 0,000 mm 5,3 UV-I 771 W/m 14,2 C 27,6 C 12,9 km/h (3 Bft) 97,56 %
19.07.2016 15:24 27,6 C 43 % 1018,7 hPa 0,0 l/m 3,6 km/h (1 Bft) N 10 2 min 0,000 mm 5,3 UV-I 773 W/m 13,9 C 27,6 C 9,7 km/h (2 Bft) 100,00 %
19.07.2016 15:26 27,8 C 46 % 1018,6 hPa 0,0 l/m 4,0 km/h (1 Bft) SW 236 2 min 0,000 mm 5,3 UV-I 773 W/m 15,1 C 27,8 C 8,0 km/h (2 Bft) 100,00 %
19.07.2016 15:28 27,9 C 44 % 1018,6 hPa 0,0 l/m 8,6 km/h (2 Bft) W 265 2 min 0,000 mm 5,2 UV-I 771 W/m 14,5 C 27,6 C 14,5 km/h (3 Bft) 100,00 %
19.07.2016 15:30 28,1 C 42 % 1018,6 hPa 0,0 l/m 4,6 km/h (1 Bft) SW 215 2 min 0,000 mm 5,2 UV-I 772 W/m 14,0 C 28,1 C 11,3 km/h (2 Bft) 100,00 %
19.07.2016 15:32 28,2 C 44 % 1018,6 hPa 0,0 l/m 6,2 km/h (2 Bft) W 271 2 min 0,000 mm 5,2 UV-I 770 W/m 14,8 C 28,2 C 12,9 km/h (3 Bft) 100,00 %
19.07.2016 15:34 28,3 C 43 % 1018,6 hPa 0,0 l/m 6,6 km/h (2 Bft) W 280 2 min 0,000 mm 5,1 UV-I 763 W/m 14,5 C 28,3 C 17,7 km/h (3 Bft) 100,00 %
19.07.2016 15:36 28,2 C 42 % 1018,6 hPa 0,0 l/m 10,0 km/h (2 Bft) W 261 2 min 0,000 mm 5,0 UV-I 760 W/m 14,0 C 27,7 C 16,1 km/h (3 Bft) 97,87 %
19.07.2016 15:38 28,1 C 42 % 1018,5 hPa 0,0 l/m 12,9 km/h (3 Bft) S 169 2 min 0,000 mm 4,9 UV-I 754 W/m 14,0 C 27,3 C 17,7 km/h (3 Bft) 100,00 %
19.07.2016 15:40 28,1 C 41 % 1018,5 hPa 0,0 l/m 13,6 km/h (3 Bft) W-SW 248 2 min 0,000 mm 4,9 UV-I 750 W/m 13,6 C 27,2 C 19,3 km/h (3 Bft) 100,00 %
19.07.2016 15:42 27,8 C 40 % 1018,5 hPa 0,0 l/m 5,2 km/h (1 Bft) W-SW 250 2 min 0,000 mm 4,9 UV-I 744 W/m 12,9 C 27,8 C 8,0 km/h (2 Bft) 97,87 %
19.07.2016 15:44 27,8 C 44 % 1018,5 hPa 0,0 l/m 7,3 km/h (2 Bft) W 281 2 min 0,000 mm 4,8 UV-I 738 W/m 14,4 C 27,7 C 12,9 km/h (3 Bft) 97,87 %
19.07.2016 15:46 27,8 C 45 % 1018,5 hPa 0,0 l/m 8,0 km/h (2 Bft) W-NW 287 2 min 0,000 mm 4,8 UV-I 734 W/m 14,8 C 27,5 C 14,5 km/h (3 Bft) 100,00 %
19.07.2016 15:48 27,8 C 41 % 1018,5 hPa 0,0 l/m 6,0 km/h (2 Bft) W 267 2 min 0,000 mm 4,7 UV-I 727 W/m 13,3 C 27,8 C 12,9 km/h (3 Bft) 100,00 %
19.07.2016 15:50 27,8 C 40 % 1018,5 hPa 0,0 l/m 9,3 km/h (2 Bft) W-SW 254 2 min 0,000 mm 4,6 UV-I 720 W/m 12,9 C 27,4 C 14,5 km/h (3 Bft) 100,00 %
19.07.2016 15:52 27,7 C 40 % 1018,5 hPa 0,0 l/m 7,6 km/h (2 Bft) W 277 2 min 0,000 mm 4,5 UV-I 718 W/m 12,9 C 27,5 C 12,9 km/h (3 Bft) 100,00 %
19.07.2016 15:54 27,8 C 44 % 1018,4 hPa 0,0 l/m 5,5 km/h (1 Bft) W-SW 246 2 min 0,000 mm 4,5 UV-I 714 W/m 14,4 C 27,8 C 14,5 km/h (3 Bft) 97,87 %
19.07.2016 15:56 28,0 C 44 % 1018,4 hPa 0,0 l/m 9,5 km/h (2 Bft) W 261 2 min 0,000 mm 4,4 UV-I 711 W/m 14,6 C 27,5 C 16,1 km/h (3 Bft) 100,00 %
19.07.2016 15:58 28,0 C 41 % 1018,4 hPa 0,0 l/m 7,1 km/h (2 Bft) W 278 2 min 0,000 mm 4,3 UV-I 701 W/m 13,5 C 27,9 C 12,9 km/h (3 Bft) 97,87 %
19.07.2016 16:00 27,9 C 41 % 1018,3 hPa 0,0 l/m 5,2 km/h (1 Bft) SW 229 2 min 0,559 mm 4,2 UV-I 694 W/m 13,4 C 27,9 C 11,3 km/h (2 Bft) 97,87 %
19.07.2016 16:02 27,9 C 43 % 1018,4 hPa 0,0 l/m 7,6 km/h (2 Bft) W 261 2 min 0,000 mm 4,2 UV-I 694 W/m 14,1 C 27,7 C 11,3 km/h (2 Bft) 100,00 %
19.07.2016 16:04 27,9 C 42 % 1018,3 hPa 0,0 l/m 3,5 km/h (1 Bft) W-SW 246 2 min 0,000 mm 4,2 UV-I 693 W/m 13,8 C 27,9 C 6,4 km/h (2 Bft) 100,00 %
19.07.2016 16:06 28,1 C 44 % 1018,3 hPa 0,0 l/m 3,7 km/h (1 Bft) O-NO 73 2 min 0,000 mm 4,1 UV-I 690 W/m 14,7 C 28,1 C 9,7 km/h (2 Bft) 100,00 %
19.07.2016 16:08 27,9 C 41 % 1018,3 hPa 0,0 l/m 3,0 km/h (1 Bft) S 169 2 min 0,000 mm 4,1 UV-I 683 W/m 13,4 C 27,9 C 6,4 km/h (2 Bft) 100,00 %
19.07.2016 16:10 27,9 C 41 % 1018,3 hPa 0,0 l/m 4,6 km/h (1 Bft) S-SW 200 2 min 0,000 mm 4,0 UV-I 677 W/m 13,4 C 27,9 C 9,7 km/h (2 Bft) 97,87 %
19.07.2016 16:12 28,0 C 42 % 1018,3 hPa 0,0 l/m 2,2 km/h (1 Bft) W 260 2 min 0,000 mm 4,0 UV-I 675 W/m 13,9 C 28,0 C 6,4 km/h (2 Bft) 97,92 %
19.07.2016 16:14 28,1 C 44 % 1018,3 hPa 0,0 l/m 3,0 km/h (1 Bft) N-NO 27 2 min 0,000 mm 3,9 UV-I 672 W/m 14,7 C 28,1 C 4,8 km/h (1 Bft) 100,00 %
19.07.2016 16:16 28,4 C 42 % 1018,2 hPa 0,0 l/m 4,5 km/h (1 Bft) N 355 2 min 0,000 mm 3,9 UV-I 665 W/m 14,2 C 28,4 C 8,0 km/h (2 Bft) 97,87 %
19.07.2016 16:18 28,6 C 41 % 1018,2 hPa 0,0 l/m 3,1 km/h (1 Bft) W 281 2 min 0,000 mm 3,8 UV-I 664 W/m 14,0 C 28,6 C 6,4 km/h (2 Bft) 97,87 %
19.07.2016 16:20 28,5 C 43 % 1018,2 hPa 0,0 l/m 1,1 km/h (1 Bft) W-SW 254 2 min 0,000 mm 3,8 UV-I 662 W/m 14,7 C 28,5 C 4,8 km/h (1 Bft) 97,87 %
19.07.2016 16:22 28,6 C 43 % 1018,1 hPa 0,0 l/m 5,5 km/h (1 Bft) W 279 2 min 0,000 mm 3,7 UV-I 660 W/m 14,8 C 28,6 C 12,9 km/h (3 Bft) 97,87 %
19.07.2016 16:24 28,6 C 42 % 1018,2 hPa 0,0 l/m 7,7 km/h (2 Bft) SW 227 2 min 0,000 mm 3,7 UV-I 659 W/m 14,4 C 28,4 C 14,5 km/h (3 Bft) 95,74 %
19.07.2016 16:26 28,5 C 42 % 1018,1 hPa 0,0 l/m 6,2 km/h (2 Bft) W-SW 244 2 min 0,000 mm 3,7 UV-I 661 W/m 14,3 C 28,5 C 11,3 km/h (2 Bft) 96,00 %
19.07.2016 16:28 28,5 C 42 % 1018,2 hPa 0,0 l/m 5,2 km/h (1 Bft) W 275 2 min 0,000 mm 3,6 UV-I 658 W/m 14,3 C 28,5 C 11,3 km/h (2 Bft) 98,00 %
19.07.2016 16:30 28,3 C 40 % 1018,2 hPa 0,0 l/m 7,8 km/h (2 Bft) W 278 2 min 0,000 mm 3,5 UV-I 647 W/m 13,4 C 28,1 C 14,5 km/h (3 Bft) 95,74 %
19.07.2016 16:32 28,2 C 40 % 1018,1 hPa 0,0 l/m 5,1 km/h (1 Bft) NW 316 2 min 0,000 mm 3,5 UV-I 638 W/m 13,3 C 28,2 C 12,9 km/h (3 Bft) 97,92 %
19.07.2016 16:34 28,1 C 40 % 1018,1 hPa 0,0 l/m 5,8 km/h (2 Bft) S-SW 200 2 min 0,000 mm 3,4 UV-I 633 W/m 13,2 C 28,1 C 12,9 km/h (3 Bft) 95,74 %
19.07.2016 16:36 28,1 C 40 % 1018,0 hPa 0,0 l/m 8,6 km/h (2 Bft) W-SW 238 2 min 0,000 mm 3,4 UV-I 629 W/m 13,2 C 27,8 C 16,1 km/h (3 Bft) 94,59 %
19.07.2016 16:38 28,0 C 40 % 1018,1 hPa 0,0 l/m 12,1 km/h (2 Bft) W-SW 254 2 min 0,000 mm 3,3 UV-I 623 W/m 13,1 C 27,2 C 17,7 km/h (3 Bft) 93,62 %
19.07.2016 16:40 28,0 C 41 % 1018,0 hPa 0,0 l/m 2,7 km/h (1 Bft) W-NW 292 2 min 0,000 mm 3,2 UV-I 614 W/m 13,5 C 28,0 C 9,7 km/h (2 Bft) 95,74 %
19.07.2016 16:42 28,1 C 42 % 1018,0 hPa 0,0 l/m 3,4 km/h (1 Bft) W-SW 244 2 min 0,000 mm 3,2 UV-I 612 W/m 14,0 C 28,1 C 8,0 km/h (2 Bft) 97,87 %
19.07.2016 16:44 28,3 C 40 % 1018,0 hPa 0,0 l/m 6,5 km/h (2 Bft) W 275 2 min 0,000 mm 3,1 UV-I 607 W/m 13,4 C 28,3 C 11,3 km/h (2 Bft) 97,87 %
19.07.2016 16:46 28,2 C 40 % 1018,0 hPa 0,0 l/m 3,3 km/h (1 Bft) W-NW 282 2 min 0,000 mm 3,1 UV-I 601 W/m 13,3 C 28,2 C 9,7 km/h (2 Bft) 95,74 %
19.07.2016 16:48 28,2 C 42 % 1018,0 hPa 0,0 l/m 3,1 km/h (1 Bft) N 360 2 min 0,000 mm 3,0 UV-I 596 W/m 14,0 C 28,2 C 6,4 km/h (2 Bft) 97,87 %
19.07.2016 16:50 28,2 C 39 % 1018,0 hPa 0,0 l/m 5,6 km/h (1 Bft) W-NW 298 2 min 0,000 mm 3,0 UV-I 588 W/m 12,9 C 28,2 C 11,3 km/h (2 Bft) 97,87 %
19.07.2016 16:52 28,2 C 40 % 1017,9 hPa 0,0 l/m 3,3 km/h (1 Bft) W 273 2 min 0,000 mm 2,9 UV-I 583 W/m 13,3 C 28,2 C 6,4 km/h (2 Bft) 100,00 %
19.07.2016 16:54 28,2 C 43 % 1018,0 hPa 0,0 l/m 2,0 km/h (1 Bft) W-NW 298 2 min 0,000 mm 2,9 UV-I 582 W/m 14,4 C 28,2 C 4,8 km/h (1 Bft) 100,00 %
19.07.2016 16:56 28,5 C 44 % 1017,9 hPa 0,0 l/m 1,7 km/h (1 Bft) W-NW 303 2 min 0,000 mm 2,9 UV-I 576 W/m 15,0 C 28,5 C 6,4 km/h (2 Bft) 97,87 %
19.07.2016 16:58 28,4 C 38 % 1017,9 hPa 0,0 l/m 3,7 km/h (1 Bft) W-NW 300 2 min 0,000 mm 2,8 UV-I 570 W/m 12,7 C 28,4 C 6,4 km/h (2 Bft) 98,00 %
19.07.2016 17:00 28,3 C 40 % 1017,9 hPa 0,0 l/m 5,1 km/h (1 Bft) W-SW 252 2 min 0,000 mm 2,7 UV-I 564 W/m 13,4 C 28,3 C 8,0 km/h (2 Bft) 100,00 %
19.07.2016 17:02 28,3 C 40 % 1017,9 hPa 0,0 l/m 5,8 km/h (2 Bft) W-SW 251 2 min 0,457 mm 2,7 UV-I 560 W/m 13,4 C 28,3 C 12,9 km/h (3 Bft) 100,00 %
19.07.2016 17:04 28,3 C 42 % 1017,8 hPa 0,0 l/m 2,9 km/h (1 Bft) W-SW 242 2 min 0,000 mm 2,6 UV-I 556 W/m 14,1 C 28,3 C 8,0 km/h (2 Bft) 100,00 %
19.07.2016 17:06 28,3 C 40 % 1017,8 hPa 0,0 l/m 6,3 km/h (2 Bft) W 273 2 min 0,000 mm 2,6 UV-I 549 W/m 13,4 C 28,3 C 12,9 km/h (3 Bft) 97,87 %
19.07.2016 17:08 28,3 C 39 % 1017,8 hPa 0,0 l/m 5,8 km/h (2 Bft) W-NW 295 2 min 0,000 mm 2,6 UV-I 545 W/m 13,0 C 28,3 C 12,9 km/h (3 Bft) 100,00 %
19.07.2016 17:10 28,1 C 39 % 1017,8 hPa 0,0 l/m 4,6 km/h (1 Bft) W-SW 254 2 min 0,000 mm 2,5 UV-I 541 W/m 12,8 C 28,1 C 11,3 km/h (2 Bft) 100,00 %
19.07.2016 17:12 28,1 C 39 % 1017,7 hPa 0,0 l/m 3,2 km/h (1 Bft) NW 325 2 min 0,000 mm 2,4 UV-I 533 W/m 12,8 C 28,1 C 6,4 km/h (2 Bft) 100,00 %
19.07.2016 17:14 28,1 C 41 % 1017,8 hPa 0,0 l/m 3,1 km/h (1 Bft) S-SO 163 2 min 0,000 mm 2,4 UV-I 528 W/m 13,6 C 28,1 C 8,0 km/h (2 Bft) 100,00 %
19.07.2016 17:16 28,2 C 42 % 1017,8 hPa 0,0 l/m 3,0 km/h (1 Bft) W 281 2 min 0,000 mm 2,3 UV-I 521 W/m 14,0 C 28,2 C 9,7 km/h (2 Bft) 100,00 %
19.07.2016 17:18 28,3 C 41 % 1017,7 hPa 0,0 l/m 4,0 km/h (1 Bft) N-NW 335 2 min 0,000 mm 2,3 UV-I 517 W/m 13,8 C 28,3 C 8,0 km/h (2 Bft) 100,00 %
19.07.2016 17:20 28,4 C 40 % 1017,7 hPa 0,0 l/m 3,1 km/h (1 Bft) W-SW 257 2 min 0,000 mm 2,2 UV-I 508 W/m 13,5 C 28,4 C 6,4 km/h (2 Bft) 100,00 %
19.07.2016 17:22 28,4 C 42 % 1017,7 hPa 0,0 l/m 4,3 km/h (1 Bft) W-SW 239 2 min 0,000 mm 2,2 UV-I 503 W/m 14,2 C 28,4 C 9,7 km/h (2 Bft) 100,00 %
19.07.2016 17:24 28,4 C 42 % 1017,8 hPa 0,0 l/m 7,7 km/h (2 Bft) W 259 2 min 0,000 mm 2,2 UV-I 498 W/m 14,2 C 28,2 C 14,5 km/h (3 Bft) 100,00 %
19.07.2016 17:26 28,3 C 40 % 1017,7 hPa 0,0 l/m 8,0 km/h (2 Bft) W 264 2 min 0,000 mm 2,1 UV-I 496 W/m 13,4 C 28,1 C 14,5 km/h (3 Bft) 100,00 %
19.07.2016 17:28 28,2 C 40 % 1017,7 hPa 0,0 l/m 8,1 km/h (2 Bft) W-SW 250 2 min 0,000 mm 2,1 UV-I 492 W/m 13,3 C 27,9 C 14,5 km/h (3 Bft) 97,87 %
19.07.2016 17:30 28,2 C 43 % 1017,7 hPa 0,0 l/m 3,5 km/h (1 Bft) W 281 2 min 0,000 mm 2,0 UV-I 486 W/m 14,4 C 28,2 C 8,0 km/h (2 Bft) 100,00 %
19.07.2016 17:32 28,2 C 43 % 1017,7 hPa 0,0 l/m 3,8 km/h (1 Bft) W 268 2 min 0,000 mm 2,0 UV-I 480 W/m 14,4 C 28,2 C 6,4 km/h (2 Bft) 97,87 %
19.07.2016 17:34 28,2 C 42 % 1017,7 hPa 0,0 l/m 4,4 km/h (1 Bft) NW 309 2 min 0,000 mm 1,9 UV-I 476 W/m 14,0 C 28,2 C 12,9 km/h (3 Bft) 100,00 %
19.07.2016 17:36 28,2 C 42 % 1017,6 hPa 0,0 l/m 2,5 km/h (1 Bft) N 349 2 min 0,000 mm 1,9 UV-I 470 W/m 14,0 C 28,2 C 3,2 km/h (1 Bft) 100,00 %
19.07.2016 17:38 28,4 C 41 % 1017,5 hPa 0,0 l/m 2,6 km/h (1 Bft) W-NW 291 2 min 0,000 mm 1,9 UV-I 466 W/m 13,9 C 28,4 C 4,8 km/h (1 Bft) 97,87 %
19.07.2016 17:40 28,4 C 41 % 1017,6 hPa 0,0 l/m 3,0 km/h (1 Bft) W 279 2 min 0,000 mm 1,8 UV-I 459 W/m 13,9 C 28,4 C 6,4 km/h (2 Bft) 100,00 %
19.07.2016 17:42 28,3 C 39 % 1017,6 hPa 0,0 l/m 1,9 km/h (1 Bft) NW 309 2 min 0,000 mm 1,8 UV-I 455 W/m 13,0 C 28,3 C 3,2 km/h (1 Bft) 97,87 %
19.07.2016 17:44 28,3 C 40 % 1017,6 hPa 0,0 l/m 1,8 km/h (1 Bft) W-NW 302 2 min 0,000 mm 1,7 UV-I 449 W/m 13,4 C 28,3 C 3,2 km/h (1 Bft) 100,00 %
19.07.2016 17:46 28,3 C 42 % 1017,6 hPa 0,0 l/m 0,9 km/h (0 Bft) NW 326 2 min 0,000 mm 1,7 UV-I 445 W/m 14,1 C 28,3 C 3,2 km/h (1 Bft) 95,74 %
19.07.2016 17:48 28,3 C 39 % 1017,5 hPa 0,0 l/m 1,8 km/h (1 Bft) NW 306 2 min 0,000 mm 1,7 UV-I 440 W/m 13,0 C 28,3 C 4,8 km/h (1 Bft) 100,00 %
19.07.2016 17:50 28,2 C 40 % 1017,5 hPa 0,0 l/m 1,9 km/h (1 Bft) N 355 2 min 0,000 mm 1,6 UV-I 433 W/m 13,3 C 28,2 C 4,8 km/h (1 Bft) 94,44 %
19.07.2016 17:52 28,2 C 41 % 1017,5 hPa 0,0 l/m 3,6 km/h (1 Bft) W 264 2 min 0,000 mm 1,6 UV-I 427 W/m 13,7 C 28,2 C 6,4 km/h (2 Bft) 97,96 %
19.07.2016 17:54 28,1 C 41 % 1017,5 hPa 0,0 l/m 2,6 km/h (1 Bft) W-NW 284 2 min 0,000 mm 1,5 UV-I 421 W/m 13,6 C 28,1 C 4,8 km/h (1 Bft) 100,00 %
19.07.2016 17:56 28,2 C 41 % 1017,5 hPa 0,0 l/m 3,3 km/h (1 Bft) N-NW 338 2 min 0,000 mm 1,5 UV-I 415 W/m 13,7 C 28,2 C 12,9 km/h (3 Bft) 97,87 %
19.07.2016 17:58 28,1 C 41 % 1017,5 hPa 0,0 l/m 3,8 km/h (1 Bft) N 10 2 min 0,000 mm 1,4 UV-I 409 W/m 13,6 C 28,1 C 12,9 km/h (3 Bft) 100,00 %
19.07.2016 18:00 28,0 C 38 % 1017,5 hPa 0,0 l/m 3,5 km/h (1 Bft) N 355 2 min 0,356 mm 1,4 UV-I 402 W/m 12,3 C 28,0 C 8,0 km/h (2 Bft) 97,87 %
19.07.2016 18:02 27,9 C 40 % 1017,5 hPa 0,0 l/m 3,0 km/h (1 Bft) N-NW 327 2 min 0,000 mm 1,3 UV-I 397 W/m 13,0 C 27,9 C 4,8 km/h (1 Bft) 100,00 %
19.07.2016 18:04 28,0 C 39 % 1017,5 hPa 0,0 l/m 3,2 km/h (1 Bft) W-NW 287 2 min 0,000 mm 1,3 UV-I 392 W/m 12,7 C 28,0 C 8,0 km/h (2 Bft) 97,87 %
19.07.2016 18:06 27,9 C 41 % 1017,5 hPa 0,0 l/m 2,4 km/h (1 Bft) NW 315 2 min 0,000 mm 1,3 UV-I 388 W/m 13,4 C 27,9 C 6,4 km/h (2 Bft) 100,00 %
19.07.2016 18:08 27,9 C 42 % 1017,5 hPa 0,0 l/m 4,2 km/h (1 Bft) NW 309 2 min 0,000 mm 1,2 UV-I 381 W/m 13,8 C 27,9 C 8,0 km/h (2 Bft) 96,15 %
19.07.2016 18:10 27,9 C 42 % 1017,5 hPa 0,0 l/m 2,1 km/h (1 Bft) W-NW 290 2 min 0,000 mm 1,2 UV-I 375 W/m 13,8 C 27,9 C 8,0 km/h (2 Bft) 96,88 %
19.07.2016 18:12 27,9 C 38 % 1017,5 hPa 0,0 l/m 1,3 km/h (1 Bft) W-NW 290 2 min 0,000 mm 1,1 UV-I 367 W/m 12,2 C 27,9 C 3,2 km/h (1 Bft) 95,74 %
19.07.2016 18:14 27,9 C 41 % 1017,5 hPa 0,0 l/m 3,8 km/h (1 Bft) W 279 2 min 0,000 mm 1,1 UV-I 361 W/m 13,4 C 27,9 C 8,0 km/h (2 Bft) 98,00 %
19.07.2016 18:16 28,0 C 42 % 1017,4 hPa 0,0 l/m 1,2 km/h (1 Bft) N 9 2 min 0,000 mm 1,0 UV-I 356 W/m 13,9 C 28,0 C 3,2 km/h (1 Bft) 97,87 %
19.07.2016 18:18 28,1 C 42 % 1017,5 hPa 0,0 l/m 3,3 km/h (1 Bft) N-NW 333 2 min 0,000 mm 1,0 UV-I 350 W/m 14,0 C 28,1 C 6,4 km/h (2 Bft) 98,00 %
19.07.2016 18:20 28,1 C 42 % 1017,4 hPa 0,0 l/m 3,3 km/h (1 Bft) N-NW 341 2 min 0,000 mm 1,0 UV-I 344 W/m 14,0 C 28,1 C 9,7 km/h (2 Bft) 97,87 %
19.07.2016 18:22 27,9 C 42 % 1017,4 hPa 0,0 l/m 2,5 km/h (1 Bft) N 9 2 min 0,000 mm 0,9 UV-I 337 W/m 13,8 C 27,9 C 4,8 km/h (1 Bft) 97,44 %
19.07.2016 18:24 27,8 C 42 % 1017,4 hPa 0,0 l/m 2,4 km/h (1 Bft) N 360 2 min 0,000 mm 0,9 UV-I 330 W/m 13,7 C 27,8 C 4,8 km/h (1 Bft) 97,87 %
19.07.2016 18:26 27,7 C 43 % 1017,4 hPa 0,0 l/m 4,1 km/h (1 Bft) NW 310 2 min 0,000 mm 0,9 UV-I 325 W/m 14,0 C 27,7 C 8,0 km/h (2 Bft) 97,87 %
19.07.2016 18:28 27,7 C 41 % 1017,4 hPa 0,0 l/m 4,8 km/h (1 Bft) N 11 2 min 0,000 mm 0,9 UV-I 322 W/m 13,2 C 27,7 C 12,9 km/h (3 Bft) 96,00 %
19.07.2016 18:30 27,6 C 42 % 1017,4 hPa 0,0 l/m 2,5 km/h (1 Bft) NW 319 2 min 0,000 mm 0,9 UV-I 316 W/m 13,5 C 27,6 C 6,4 km/h (2 Bft) 97,87 %
19.07.2016 18:32 27,6 C 43 % 1017,3 hPa 0,0 l/m 2,7 km/h (1 Bft) NW 325 2 min 0,000 mm 0,8 UV-I 311 W/m 13,9 C 27,6 C 4,8 km/h (1 Bft) 97,87 %
19.07.2016 18:34 27,6 C 42 % 1017,3 hPa 0,0 l/m 2,5 km/h (1 Bft) N-NW 348 2 min 0,000 mm 0,8 UV-I 306 W/m 13,5 C 27,6 C 4,8 km/h (1 Bft) 93,62 %
19.07.2016 18:36 27,6 C 42 % 1017,3 hPa 0,0 l/m 2,3 km/h (1 Bft) N-NO 14 2 min 0,000 mm 0,8 UV-I 297 W/m 13,5 C 27,6 C 4,8 km/h (1 Bft) 97,87 %
19.07.2016 18:38 27,5 C 43 % 1017,3 hPa 0,0 l/m 2,2 km/h (1 Bft) NW 317 2 min 0,000 mm 0,7 UV-I 293 W/m 13,8 C 27,5 C 6,4 km/h (2 Bft) 100,00 %
19.07.2016 18:40 27,5 C 43 % 1017,3 hPa 0,0 l/m 1,5 km/h (1 Bft) NW 323 2 min 0,000 mm 0,7 UV-I 288 W/m 13,8 C 27,5 C 4,8 km/h (1 Bft) 97,87 %
19.07.2016 18:42 27,6 C 42 % 1017,3 hPa 0,0 l/m 2,0 km/h (1 Bft) NW 304 2 min 0,000 mm 0,7 UV-I 282 W/m 13,5 C 27,6 C 4,8 km/h (1 Bft) 100,00 %
19.07.2016 18:44 27,6 C 43 % 1017,4 hPa 0,0 l/m 2,2 km/h (1 Bft) N-NW 328 2 min 0,000 mm 0,7 UV-I 278 W/m 13,9 C 27,6 C 8,0 km/h (2 Bft) 97,87 %
19.07.2016 18:46 27,6 C 43 % 1017,4 hPa 0,0 l/m 3,3 km/h (1 Bft) W-NW 292 2 min 0,000 mm 0,7 UV-I 274 W/m 13,9 C 27,6 C 8,0 km/h (2 Bft) 100,00 %
19.07.2016 18:48 27,6 C 43 % 1017,4 hPa 0,0 l/m 3,4 km/h (1 Bft) W-NW 300 2 min 0,000 mm 0,7 UV-I 271 W/m 13,9 C 27,6 C 6,4 km/h (2 Bft) 95,74 %
19.07.2016 18:50 27,6 C 44 % 1017,4 hPa 0,0 l/m 1,8 km/h (1 Bft) W-NW 300 2 min 0,000 mm 0,6 UV-I 265 W/m 14,2 C 27,6 C 4,8 km/h (1 Bft) 100,00 %
19.07.2016 18:52 27,6 C 44 % 1017,4 hPa 0,0 l/m 1,0 km/h (0 Bft) W-NW 300 2 min 0,000 mm 0,6 UV-I 258 W/m 14,2 C 27,6 C 3,2 km/h (1 Bft) 100,00 %
19.07.2016 18:54 27,7 C 43 % 1017,4 hPa 0,0 l/m 3,0 km/h (1 Bft) N 5 2 min 0,000 mm 0,6 UV-I 252 W/m 14,0 C 27,7 C 6,4 km/h (2 Bft) 100,00 %
19.07.2016 18:56 27,6 C 43 % 1017,4 hPa 0,0 l/m 1,7 km/h (1 Bft) W-NW 302 2 min 0,000 mm 0,6 UV-I 247 W/m 13,9 C 27,6 C 4,8 km/h (1 Bft) 100,00 %
19.07.2016 18:58 27,6 C 43 % 1017,4 hPa 0,0 l/m 4,7 km/h (1 Bft) N 9 2 min 0,000 mm 0,5 UV-I 241 W/m 13,9 C 27,6 C 11,3 km/h (2 Bft) 98,00 %
19.07.2016 19:00 27,5 C 44 % 1017,4 hPa 0,0 l/m 4,1 km/h (1 Bft) N-NO 18 2 min 0,229 mm 0,5 UV-I 236 W/m 14,1 C 27,5 C 8,0 km/h (2 Bft) 100,00 %
19.07.2016 19:02 27,4 C 44 % 1017,4 hPa 0,0 l/m 2,4 km/h (1 Bft) N 355 2 min 0,000 mm 0,5 UV-I 231 W/m 14,0 C 27,4 C 6,4 km/h (2 Bft) 97,92 %
19.07.2016 19:04 27,3 C 45 % 1017,4 hPa 0,0 l/m 1,8 km/h (1 Bft) N-NW 348 2 min 0,000 mm 0,5 UV-I 224 W/m 14,3 C 27,3 C 4,8 km/h (1 Bft) 100,00 %
19.07.2016 19:06 27,2 C 46 % 1017,4 hPa 0,0 l/m 2,0 km/h (1 Bft) N 9 2 min 0,000 mm 0,2 UV-I 217 W/m 14,6 C 27,2 C 4,8 km/h (1 Bft) 100,00 %
19.07.2016 19:08 27,2 C 46 % 1017,4 hPa 0,0 l/m 1,6 km/h (1 Bft) N-NO 14 2 min 0,000 mm 0,0 UV-I 210 W/m 14,6 C 27,2 C 3,2 km/h (1 Bft) 100,00 %
19.07.2016 19:10 27,2 C 47 % 1017,4 hPa 0,0 l/m 2,0 km/h (1 Bft) N 11 2 min 0,000 mm 0,0 UV-I 203 W/m 14,9 C 27,2 C 4,8 km/h (1 Bft) 100,00 %
19.07.2016 19:12 27,2 C 47 % 1017,4 hPa 0,0 l/m 1,6 km/h (1 Bft) N-NW 327 2 min 0,000 mm 0,0 UV-I 196 W/m 14,9 C 27,2 C 4,8 km/h (1 Bft) 97,87 %
19.07.2016 19:14 27,2 C 47 % 1017,4 hPa 0,0 l/m 3,7 km/h (1 Bft) W-NW 294 2 min 0,000 mm 0,0 UV-I 189 W/m 14,9 C 27,2 C 8,0 km/h (2 Bft) 97,87 %
19.07.2016 19:16 27,1 C 46 % 1017,4 hPa 0,0 l/m 2,3 km/h (1 Bft) NW 312 2 min 0,000 mm 0,0 UV-I 183 W/m 14,5 C 27,1 C 6,4 km/h (2 Bft) 100,00 %
19.07.2016 19:18 27,1 C 46 % 1017,4 hPa 0,0 l/m 3,0 km/h (1 Bft) W-NW 303 2 min 0,000 mm 0,0 UV-I 177 W/m 14,5 C 27,1 C 6,4 km/h (2 Bft) 100,00 %
19.07.2016 19:20 27,1 C 46 % 1017,4 hPa 0,0 l/m 3,0 km/h (1 Bft) N-NW 330 2 min 0,000 mm 0,0 UV-I 170 W/m 14,5 C 27,1 C 6,4 km/h (2 Bft) 100,00 %
19.07.2016 19:22 27,1 C 45 % 1017,4 hPa 0,0 l/m 3,7 km/h (1 Bft) NW 315 2 min 0,000 mm 0,0 UV-I 163 W/m 14,1 C 27,1 C 8,0 km/h (2 Bft) 100,00 %
19.07.2016 19:24 27,0 C 46 % 1017,4 hPa 0,0 l/m 2,3 km/h (1 Bft) N-NW 327 2 min 0,000 mm 0,0 UV-I 157 W/m 14,4 C 27,0 C 4,8 km/h (1 Bft) 100,00 %
19.07.2016 19:26 26,9 C 47 % 1017,4 hPa 0,0 l/m 4,4 km/h (1 Bft) N 349 2 min 0,000 mm 0,0 UV-I 152 W/m 14,6 C 26,9 C 8,0 km/h (2 Bft) 100,00 %
19.07.2016 19:28 26,8 C 47 % 1017,3 hPa 0,0 l/m 2,5 km/h (1 Bft) N-NW 336 2 min 0,000 mm 0,0 UV-I 146 W/m 14,5 C 26,8 C 4,8 km/h (1 Bft) 100,00 %
19.07.2016 19:30 26,8 C 46 % 1017,3 hPa 0,0 l/m 1,0 km/h (0 Bft) N-NW 336 2 min 0,000 mm 0,0 UV-I 140 W/m 14,2 C 26,8 C 3,2 km/h (1 Bft) 100,00 %
19.07.2016 19:32 26,8 C 46 % 1017,3 hPa 0,0 l/m 2,2 km/h (1 Bft) N 355 2 min 0,000 mm 0,0 UV-I 134 W/m 14,2 C 26,8 C 6,4 km/h (2 Bft) 97,87 %
19.07.2016 19:34 26,7 C 46 % 1017,3 hPa 0,0 l/m 2,4 km/h (1 Bft) NW 326 2 min 0,000 mm 0,0 UV-I 128 W/m 14,1 C 26,7 C 6,4 km/h (2 Bft) 100,00 %
19.07.2016 19:36 26,7 C 47 % 1017,3 hPa 0,0 l/m 2,9 km/h (1 Bft) NW 321 2 min 0,000 mm 0,0 UV-I 121 W/m 14,4 C 26,7 C 6,4 km/h (2 Bft) 100,00 %
19.07.2016 19:38 26,7 C 47 % 1017,3 hPa 0,0 l/m 2,3 km/h (1 Bft) NW 325 2 min 0,000 mm 0,0 UV-I 116 W/m 14,4 C 26,7 C 4,8 km/h (1 Bft) 100,00 %
19.07.2016 19:40 26,7 C 46 % 1017,2 hPa 0,0 l/m 1,0 km/h (0 Bft) N-NW 332 2 min 0,000 mm 0,0 UV-I 110 W/m 14,1 C 26,7 C 3,2 km/h (1 Bft) 100,00 %
19.07.2016 19:42 26,7 C 48 % 1017,2 hPa 0,0 l/m 0,2 km/h (0 Bft) N-NW 332 2 min 0,000 mm 0,0 UV-I 103 W/m 14,8 C 26,7 C 1,6 km/h (1 Bft) 100,00 %
19.07.2016 19:44 26,7 C 48 % 1017,2 hPa 0,0 l/m 0,8 km/h (0 Bft) N-NW 332 2 min 0,000 mm 0,0 UV-I 98 W/m 14,8 C 26,7 C 3,2 km/h (1 Bft) 97,87 %
19.07.2016 19:46 26,7 C 48 % 1017,3 hPa 0,0 l/m 1,3 km/h (1 Bft) N 5 2 min 0,000 mm 0,0 UV-I 92 W/m 14,8 C 26,7 C 6,4 km/h (2 Bft) 100,00 %
19.07.2016 19:48 26,5 C 49 % 1017,3 hPa 0,0 l/m 1,7 km/h (1 Bft) N 5 0 min 0,000 mm 0,0 UV-I 86 W/m 14,9 C 26,5 C 4,8 km/h (1 Bft) 97,87 %
19.07.2016 19:50 26,3 C 52 % 1017,3 hPa 0,0 l/m 1,3 km/h (1 Bft) N 9 0 min 0,000 mm 0,0 UV-I 82 W/m 15,6 C 26,3 C 3,2 km/h (1 Bft) 97,87 %
19.07.2016 19:52 26,1 C 54 % 1017,3 hPa 0,0 l/m 4,0 km/h (1 Bft) N-NO 22 0 min 0,000 mm 0,0 UV-I 78 W/m 16,0 C 26,1 C 12,9 km/h (3 Bft) 97,87 %
19.07.2016 19:54 25,8 C 55 % 1017,3 hPa 0,0 l/m 4,4 km/h (1 Bft) N-NW 340 0 min 0,000 mm 0,0 UV-I 73 W/m 16,1 C 25,8 C 8,0 km/h (2 Bft) 95,74 %
19.07.2016 19:56 25,6 C 57 % 1017,4 hPa 0,0 l/m 6,0 km/h (2 Bft) N 11 0 min 0,000 mm 0,0 UV-I 68 W/m 16,4 C 25,6 C 11,3 km/h (2 Bft) 97,87 %
19.07.2016 19:58 25,3 C 57 % 1017,3 hPa 0,0 l/m 5,4 km/h (1 Bft) N 5 0 min 0,000 mm 0,0 UV-I 64 W/m 16,2 C 25,3 C 11,3 km/h (2 Bft) 97,87 %
19.07.2016 20:00 25,1 C 58 % 1017,4 hPa 0,0 l/m 7,6 km/h (2 Bft) NO 44 0 min 0,000 mm 0,0 UV-I 60 W/m 16,2 C 24,8 C 14,5 km/h (3 Bft) 93,62 %
19.07.2016 20:02 24,9 C 58 % 1017,4 hPa 0,0 l/m 10,2 km/h (2 Bft) NO 34 0 min 0,127 mm 0,0 UV-I 56 W/m 16,1 C 24,0 C 14,5 km/h (3 Bft) 97,87 %
19.07.2016 20:04 24,8 C 59 % 1017,4 hPa 0,0 l/m 4,5 km/h (1 Bft) N-NO 15 0 min 0,000 mm 0,0 UV-I 52 W/m 16,2 C 24,8 C 8,0 km/h (2 Bft) 97,87 %
19.07.2016 20:06 24,6 C 59 % 1017,4 hPa 0,0 l/m 4,0 km/h (1 Bft) N 5 0 min 0,000 mm 0,0 UV-I 49 W/m 16,0 C 24,6 C 11,3 km/h (2 Bft) 98,00 %
19.07.2016 20:08 24,5 C 60 % 1017,4 hPa 0,0 l/m 4,0 km/h (1 Bft) N-NO 12 0 min 0,000 mm 0,0 UV-I 45 W/m 16,2 C 24,5 C 8,0 km/h (2 Bft) 95,74 %
19.07.2016 20:10 24,3 C 60 % 1017,4 hPa 0,0 l/m 2,6 km/h (1 Bft) N 5 0 min 0,000 mm 0,0 UV-I 40 W/m 16,0 C 24,3 C 8,0 km/h (2 Bft) 95,74 %
19.07.2016 20:12 24,2 C 62 % 1017,4 hPa 0,0 l/m 0,4 km/h (0 Bft) N 5 0 min 0,000 mm 0,0 UV-I 30 W/m 16,4 C 24,2 C 1,6 km/h (1 Bft) 97,87 %
19.07.2016 20:14 24,0 C 62 % 1017,4 hPa 0,0 l/m 2,3 km/h (1 Bft) N-NO 22 0 min 0,000 mm 0,0 UV-I 25 W/m 16,3 C 24,0 C 6,4 km/h (2 Bft) 97,87 %
19.07.2016 20:16 23,9 C 62 % 1017,4 hPa 0,0 l/m 1,6 km/h (1 Bft) N-NO 21 0 min 0,000 mm 0,0 UV-I 22 W/m 16,2 C 23,9 C 4,8 km/h (1 Bft) 95,74 %
19.07.2016 20:18 23,9 C 62 % 1017,4 hPa 0,0 l/m 3,3 km/h (1 Bft) N-NO 17 0 min 0,000 mm 0,0 UV-I 21 W/m 16,2 C 23,9 C 4,8 km/h (1 Bft) 100,00 %
19.07.2016 20:20 23,9 C 62 % 1017,4 hPa 0,0 l/m 3,8 km/h (1 Bft) N-NO 17 0 min 0,000 mm 0,0 UV-I 21 W/m 16,2 C 23,9 C 4,8 km/h (1 Bft) 98,39 %
19.07.2016 20:22 23,8 C 63 % 1017,4 hPa 0,0 l/m 2,8 km/h (1 Bft) N-NO 14 0 min 0,000 mm 0,0 UV-I 19 W/m 16,3 C 23,8 C 4,8 km/h (1 Bft) 98,00 %
19.07.2016 20:24 23,7 C 62 % 1017,3 hPa 0,0 l/m 3,7 km/h (1 Bft) N-NO 26 0 min 0,000 mm 0,0 UV-I 19 W/m 16,0 C 23,7 C 6,4 km/h (2 Bft) 100,00 %
19.07.2016 20:26 23,7 C 62 % 1017,3 hPa 0,0 l/m 3,7 km/h (1 Bft) N-NO 26 0 min 0,000 mm 0,0 UV-I 18 W/m 16,0 C 23,7 C 6,4 km/h (2 Bft) 100,00 %
19.07.2016 20:28 23,7 C 63 % 1017,4 hPa 0,0 l/m 2,8 km/h (1 Bft) N-NO 26 0 min 0,000 mm 0,0 UV-I 17 W/m 16,2 C 23,7 C 4,8 km/h (1 Bft) 100,00 %
19.07.2016 20:30 23,7 C 62 % 1017,4 hPa 0,0 l/m 1,6 km/h (1 Bft) N-NO 26 0 min 0,000 mm 0,0 UV-I 16 W/m 16,0 C 23,7 C 3,2 km/h (1 Bft) 95,74 %
19.07.2016 20:32 23,6 C 64 % 1017,4 hPa 0,0 l/m 2,1 km/h (1 Bft) N-NO 26 0 min 0,000 mm 0,0 UV-I 15 W/m 16,4 C 23,6 C 3,2 km/h (1 Bft) 100,00 %
19.07.2016 20:34 23,4 C 65 % 1017,4 hPa 0,0 l/m 1,8 km/h (1 Bft) N-NO 26 0 min 0,000 mm 0,0 UV-I 14 W/m 16,4 C 23,4 C 3,2 km/h (1 Bft) 97,87 %
19.07.2016 20:36 23,3 C 65 % 1017,4 hPa 0,0 l/m 1,4 km/h (1 Bft) N-NO 26 0 min 0,000 mm 0,0 UV-I 13 W/m 16,3 C 23,3 C 3,2 km/h (1 Bft) 94,74 %
19.07.2016 20:38 23,2 C 66 % 1017,4 hPa 0,0 l/m 1,1 km/h (1 Bft) N-NO 26 0 min 0,000 mm 0,0 UV-I 12 W/m 16,5 C 23,2 C 1,6 km/h (1 Bft) 100,00 %
19.07.2016 20:40 23,2 C 66 % 1017,3 hPa 0,0 l/m 1,2 km/h (1 Bft) N-NO 26 0 min 0,000 mm 0,0 UV-I 12 W/m 16,5 C 23,2 C 1,6 km/h (1 Bft) 97,87 %
19.07.2016 20:42 23,1 C 67 % 1017,3 hPa 0,0 l/m 0,0 km/h (0 Bft) N-NO 26 2 min 0,000 mm 0,0 UV-I 11 W/m 16,6 C 23,1 C 0,0 km/h (0 Bft) 100,00 %
19.07.2016 20:44 23,0 C 68 % 1017,4 hPa 0,0 l/m 1,1 km/h (1 Bft) N-NO 26 0 min 0,000 mm 0,0 UV-I 11 W/m 16,8 C 23,0 C 3,2 km/h (1 Bft) 100,00 %
19.07.2016 20:46 22,8 C 68 % 1017,4 hPa 0,0 l/m 2,0 km/h (1 Bft) N-NO 26 0 min 0,000 mm 0,0 UV-I 9 W/m 16,6 C 22,8 C 3,2 km/h (1 Bft) 97,87 %
19.07.2016 20:48 22,7 C 68 % 1017,4 hPa 0,0 l/m 2,9 km/h (1 Bft) N-NO 26 0 min 0,000 mm 0,0 UV-I 9 W/m 16,5 C 22,7 C 4,8 km/h (1 Bft) 100,00 %
19.07.2016 20:50 22,5 C 69 % 1017,4 hPa 0,0 l/m 2,9 km/h (1 Bft) N-NO 26 0 min 0,000 mm 0,0 UV-I 8 W/m 16,5 C 22,5 C 4,8 km/h (1 Bft) 100,00 %
19.07.2016 20:52 22,3 C 71 % 1017,4 hPa 0,0 l/m 1,7 km/h (1 Bft) N-NO 26 0 min 0,000 mm 0,0 UV-I 7 W/m 16,8 C 22,3 C 3,2 km/h (1 Bft) 97,87 %
19.07.2016 20:54 22,2 C 72 % 1017,4 hPa 0,0 l/m 2,2 km/h (1 Bft) N-NO 26 0 min 0,000 mm 0,0 UV-I 6 W/m 16,9 C 22,2 C 3,2 km/h (1 Bft) 100,00 %
19.07.2016 20:56 22,1 C 72 % 1017,4 hPa 0,0 l/m 2,0 km/h (1 Bft) N-NO 26 0 min 0,000 mm 0,0 UV-I 5 W/m 16,8 C 22,1 C 3,2 km/h (1 Bft) 100,00 %
19.07.2016 20:58 22,0 C 72 % 1017,4 hPa 0,0 l/m 1,3 km/h (1 Bft) N-NO 26 0 min 0,000 mm 0,0 UV-I 5 W/m 16,7 C 22,0 C 1,6 km/h (1 Bft) 97,87 %
19.07.2016 21:00 21,9 C 73 % 1017,3 hPa 0,0 l/m 0,5 km/h (0 Bft) N-NO 26 0 min 0,000 mm 0,0 UV-I 5 W/m 16,8 C 21,9 C 1,6 km/h (1 Bft) 100,00 %
19.07.2016 21:02 21,8 C 73 % 1017,3 hPa 0,0 l/m 0,4 km/h (0 Bft) N-NO 26 0 min 0,025 mm 0,0 UV-I 0 W/m 16,7 C 21,8 C 1,6 km/h (1 Bft) 100,00 %
19.07.2016 21:04 21,8 C 72 % 1017,3 hPa 0,0 l/m 0,3 km/h (0 Bft) N-NO 26 0 min 0,000 mm 0,0 UV-I 0 W/m 16,5 C 21,8 C 1,6 km/h (1 Bft) 100,00 %
19.07.2016 21:06 21,7 C 73 % 1017,3 hPa 0,0 l/m 0,0 km/h (0 Bft) N-NO 26 0 min 0,000 mm 0,0 UV-I 0 W/m 16,6 C 21,7 C 0,0 km/h (0 Bft) 100,00 %
19.07.2016 21:08 21,7 C 73 % 1017,3 hPa 0,0 l/m 0,0 km/h (0 Bft) N-NO 26 0 min 0,000 mm 0,0 UV-I 0 W/m 16,6 C 21,7 C 0,0 km/h (0 Bft) 97,87 %
19.07.2016 21:10 21,7 C 73 % 1017,3 hPa 0,0 l/m 0,4 km/h (0 Bft) N-NO 26 0 min 0,000 mm 0,0 UV-I 0 W/m 16,6 C 21,7 C 1,6 km/h (1 Bft) 97,87 %
19.07.2016 21:12 21,6 C 73 % 1017,3 hPa 0,0 l/m 0,3 km/h (0 Bft) N-NO 26 0 min 0,000 mm 0,0 UV-I 0 W/m 16,5 C 21,6 C 1,6 km/h (1 Bft) 100,00 %
19.07.2016 21:14 21,5 C 73 % 1017,4 hPa 0,0 l/m 0,8 km/h (0 Bft) NO 40 0 min 0,000 mm 0,0 UV-I 0 W/m 16,4 C 21,5 C 3,2 km/h (1 Bft) 100,00 %
19.07.2016 21:16 21,5 C 72 % 1017,3 hPa 0,0 l/m 0,5 km/h (0 Bft) NO 55 0 min 0,000 mm 0,0 UV-I 0 W/m 16,2 C 21,5 C 1,6 km/h (1 Bft) 100,00 %
19.07.2016 21:18 21,4 C 73 % 1017,3 hPa 0,0 l/m 0,1 km/h (0 Bft) NO 55 0 min 0,000 mm 0,0 UV-I 0 W/m 16,4 C 21,4 C 1,6 km/h (1 Bft) 100,00 %
19.07.2016 21:20 21,4 C 73 % 1017,4 hPa 0,0 l/m 0,0 km/h (0 Bft) NO 55 0 min 0,000 mm 0,0 UV-I 0 W/m 16,4 C 21,4 C 0,0 km/h (0 Bft) 97,87 %
19.07.2016 21:22 21,3 C 73 % 1017,4 hPa 0,0 l/m 0,0 km/h (0 Bft) NO 55 0 min 0,000 mm 0,0 UV-I 0 W/m 16,3 C 21,3 C 0,0 km/h (0 Bft) 100,00 %
19.07.2016 21:24 21,2 C 74 % 1017,4 hPa 0,0 l/m 0,0 km/h (0 Bft) NO 55 0 min 0,000 mm 0,0 UV-I 0 W/m 16,4 C 21,2 C 0,0 km/h (0 Bft) 100,00 %
19.07.2016 21:26 21,2 C 75 % 1017,4 hPa 0,0 l/m 0,0 km/h (0 Bft) NO 55 0 min 0,000 mm 0,0 UV-I 0 W/m 16,6 C 21,2 C 0,0 km/h (0 Bft) 100,00 %
19.07.2016 21:28 21,1 C 75 % 1017,4 hPa 0,0 l/m 0,0 km/h (0 Bft) NO 55 0 min 0,000 mm 0,0 UV-I 0 W/m 16,5 C 21,1 C 0,0 km/h (0 Bft) 100,00 %
19.07.2016 21:30 21,0 C 75 % 1017,4 hPa 0,0 l/m 0,0 km/h (0 Bft) NO 55 0 min 0,000 mm 0,0 UV-I 0 W/m 16,4 C 21,0 C 0,0 km/h (0 Bft) 100,00 %
19.07.2016 21:32 20,9 C 76 % 1017,4 hPa 0,0 l/m 0,0 km/h (0 Bft) NO 55 0 min 0,000 mm 0,0 UV-I 0 W/m 16,5 C 20,9 C 0,0 km/h (0 Bft) 100,00 %
19.07.2016 21:34 20,9 C 76 % 1017,4 hPa 0,0 l/m 0,0 km/h (0 Bft) NO 55 0 min 0,000 mm 0,0 UV-I 0 W/m 16,5 C 20,9 C 0,0 km/h (0 Bft) 97,87 %
19.07.2016 21:36 20,7 C 76 % 1017,4 hPa 0,0 l/m 0,0 km/h (0 Bft) NO 55 0 min 0,000 mm 0,0 UV-I 0 W/m 16,3 C 20,7 C 1,6 km/h (1 Bft) 100,00 %
19.07.2016 21:38 20,6 C 77 % 1017,4 hPa 0,0 l/m 1,5 km/h (1 Bft) NO 55 0 min 0,000 mm 0,0 UV-I 0 W/m 16,4 C 20,6 C 3,2 km/h (1 Bft) 97,87 %
19.07.2016 21:40 20,4 C 78 % 1017,4 hPa 0,0 l/m 2,5 km/h (1 Bft) NO 55 0 min 0,000 mm 0,0 UV-I 0 W/m 16,4 C 20,4 C 3,2 km/h (1 Bft) 100,00 %
19.07.2016 21:42 20,3 C 79 % 1017,4 hPa 0,0 l/m 1,3 km/h (1 Bft) NO 55 0 min 0,000 mm 0,0 UV-I 0 W/m 16,5 C 20,3 C 3,2 km/h (1 Bft) 97,92 %
19.07.2016 21:44 20,3 C 79 % 1017,4 hPa 0,0 l/m 0,6 km/h (0 Bft) NO 55 0 min 0,000 mm 0,0 UV-I 0 W/m 16,5 C 20,3 C 1,6 km/h (1 Bft) 97,87 %
19.07.2016 21:46 20,2 C 80 % 1017,4 hPa 0,0 l/m 1,0 km/h (0 Bft) NO 55 0 min 0,000 mm 0,0 UV-I 0 W/m 16,6 C 20,2 C 3,2 km/h (1 Bft) 95,74 %
19.07.2016 21:48 20,2 C 80 % 1017,4 hPa 0,0 l/m 1,1 km/h (1 Bft) NO 55 0 min 0,000 mm 0,0 UV-I 0 W/m 16,6 C 20,2 C 3,2 km/h (1 Bft) 97,87 %
19.07.2016 21:50 20,2 C 80 % 1017,4 hPa 0,0 l/m 1,2 km/h (1 Bft) NO 55 0 min 0,000 mm 0,0 UV-I 0 W/m 16,6 C 20,2 C 3,2 km/h (1 Bft) 97,87 %
19.07.2016 21:52 20,1 C 80 % 1017,4 hPa 0,0 l/m 0,2 km/h (0 Bft) NO 55 0 min 0,000 mm 0,0 UV-I 0 W/m 16,5 C 20,1 C 1,6 km/h (1 Bft) 95,74 %
19.07.2016 21:54 20,0 C 80 % 1017,5 hPa 0,0 l/m 0,0 km/h (0 Bft) NO 55 0 min 0,000 mm 0,0 UV-I 0 W/m 16,4 C 20,0 C 0,0 km/h (0 Bft) 94,59 %
19.07.2016 21:56 19,9 C 81 % 1017,5 hPa 0,0 l/m 0,4 km/h (0 Bft) NO 55 0 min 0,000 mm 0,0 UV-I 0 W/m 16,5 C 19,9 C 1,6 km/h (1 Bft) 97,87 %
19.07.2016 21:58 19,9 C 81 % 1017,5 hPa 0,0 l/m 0,5 km/h (0 Bft) NO 55 0 min 0,000 mm 0,0 UV-I 0 W/m 16,5 C 19,9 C 1,6 km/h (1 Bft) 93,62 %
19.07.2016 22:00 19,9 C 81 % 1017,5 hPa 0,0 l/m 0,0 km/h (0 Bft) NO 55 0 min 0,000 mm 0,0 UV-I 0 W/m 16,5 C 19,9 C 0,0 km/h (0 Bft) 97,87 %
19.07.2016 22:02 19,9 C 81 % 1017,5 hPa 0,0 l/m 0,0 km/h (0 Bft) NO 55 0 min 0,000 mm 0,0 UV-I 0 W/m 16,5 C 19,9 C 0,0 km/h (0 Bft) 98,00 %
19.07.2016 22:04 19,9 C 81 % 1017,5 hPa 0,0 l/m 0,0 km/h (0 Bft) NO 55 0 min 0,000 mm 0,0 UV-I 0 W/m 16,5 C 19,9 C 0,0 km/h (0 Bft) 95,74 %
19.07.2016 22:06 19,9 C 81 % 1017,5 hPa 0,0 l/m 0,9 km/h (0 Bft) NO 55 0 min 0,000 mm 0,0 UV-I 0 W/m 16,5 C 19,9 C 1,6 km/h (1 Bft) 97,87 %
19.07.2016 22:08 19,9 C 81 % 1017,5 hPa 0,0 l/m 1,5 km/h (1 Bft) NO 55 0 min 0,000 mm 0,0 UV-I 0 W/m 16,5 C 19,9 C 1,6 km/h (1 Bft) 93,62 %
19.07.2016 22:10 19,9 C 81 % 1017,5 hPa 0,0 l/m 2,1 km/h (1 Bft) NO 55 0 min 0,000 mm 0,0 UV-I 0 W/m 16,5 C 19,9 C 3,2 km/h (1 Bft) 98,00 %
19.07.2016 22:12 19,8 C 81 % 1017,5 hPa 0,0 l/m 2,0 km/h (1 Bft) NO 55 0 min 0,000 mm 0,0 UV-I 0 W/m 16,4 C 19,8 C 3,2 km/h (1 Bft) 94,00 %
19.07.2016 22:14 19,7 C 81 % 1017,5 hPa 0,0 l/m 1,6 km/h (1 Bft) O-NO 57 0 min 0,000 mm 0,0 UV-I 0 W/m 16,3 C 19,7 C 3,2 km/h (1 Bft) 95,74 %
19.07.2016 22:16 19,7 C 81 % 1017,5 hPa 0,0 l/m 2,7 km/h (1 Bft) O 88 0 min 0,000 mm 0,0 UV-I 0 W/m 16,3 C 19,7 C 3,2 km/h (1 Bft) 94,44 %
19.07.2016 22:18 19,6 C 81 % 1017,6 hPa 0,0 l/m 3,3 km/h (1 Bft) O 96 0 min 0,000 mm 0,0 UV-I 0 W/m 16,2 C 19,6 C 4,8 km/h (1 Bft) 98,08 %
19.07.2016 22:20 19,6 C 81 % 1017,6 hPa 0,0 l/m 3,4 km/h (1 Bft) O-SO 109 0 min 0,000 mm 0,0 UV-I 0 W/m 16,2 C 19,6 C 4,8 km/h (1 Bft) 97,92 %
19.07.2016 22:22 19,6 C 81 % 1017,5 hPa 0,0 l/m 2,7 km/h (1 Bft) O-SO 109 0 min 0,000 mm 0,0 UV-I 0 W/m 16,2 C 19,6 C 4,8 km/h (1 Bft) 100,00 %
19.07.2016 22:24 19,7 C 81 % 1017,5 hPa 0,0 l/m 1,4 km/h (1 Bft) O-SO 109 0 min 0,000 mm 0,0 UV-I 0 W/m 16,3 C 19,7 C 3,2 km/h (1 Bft) 100,00 %
19.07.2016 22:26 19,7 C 81 % 1017,5 hPa 0,0 l/m 0,2 km/h (0 Bft) O-SO 109 0 min 0,000 mm 0,0 UV-I 0 W/m 16,3 C 19,7 C 1,6 km/h (1 Bft) 97,87 %
19.07.2016 22:28 19,7 C 81 % 1017,6 hPa 0,0 l/m 0,0 km/h (0 Bft) O-SO 109 0 min 0,000 mm 0,0 UV-I 0 W/m 16,3 C 19,7 C 0,0 km/h (0 Bft) 97,87 %
19.07.2016 22:30 19,7 C 81 % 1017,5 hPa 0,0 l/m 0,0 km/h (0 Bft) O-SO 109 0 min 0,000 mm 0,0 UV-I 0 W/m 16,3 C 19,7 C 0,0 km/h (0 Bft) 100,00 %
19.07.2016 22:32 19,6 C 80 % 1017,5 hPa 0,0 l/m 0,0 km/h (0 Bft) O-SO 109 0 min 0,000 mm 0,0 UV-I 0 W/m 16,1 C 19,6 C 0,0 km/h (0 Bft) 100,00 %
19.07.2016 22:34 19,6 C 81 % 1017,5 hPa 0,0 l/m 0,0 km/h (0 Bft) O-SO 109 0 min 0,000 mm 0,0 UV-I 0 W/m 16,2 C 19,6 C 0,0 km/h (0 Bft) 97,87 %
19.07.2016 22:36 19,5 C 81 % 1017,5 hPa 0,0 l/m 0,0 km/h (0 Bft) O-SO 109 0 min 0,000 mm 0,0 UV-I 0 W/m 16,1 C 19,5 C 0,0 km/h (0 Bft) 100,00 %
19.07.2016 22:38 19,5 C 81 % 1017,5 hPa 0,0 l/m 0,0 km/h (0 Bft) O-SO 109 0 min 0,000 mm 0,0 UV-I 0 W/m 16,1 C 19,5 C 0,0 km/h (0 Bft) 100,00 %
19.07.2016 22:40 19,4 C 82 % 1017,5 hPa 0,0 l/m 0,4 km/h (0 Bft) O-SO 109 0 min 0,000 mm 0,0 UV-I 0 W/m 16,2 C 19,4 C 1,6 km/h (1 Bft) 100,00 %
19.07.2016 22:42 19,3 C 82 % 1017,5 hPa 0,0 l/m 1,5 km/h (1 Bft) O-SO 109 0 min 0,000 mm 0,0 UV-I 0 W/m 16,1 C 19,3 C 3,2 km/h (1 Bft) 100,00 %
19.07.2016 22:44 19,3 C 82 % 1017,4 hPa 0,0 l/m 1,6 km/h (1 Bft) O-SO 109 0 min 0,000 mm 0,0 UV-I 0 W/m 16,1 C 19,3 C 3,2 km/h (1 Bft) 100,00 %
19.07.2016 22:46 19,3 C 83 % 1017,4 hPa 0,0 l/m 1,7 km/h (1 Bft) O-SO 109 0 min 0,000 mm 0,0 UV-I 0 W/m 16,3 C 19,3 C 3,2 km/h (1 Bft) 100,00 %
19.07.2016 22:48 19,2 C 82 % 1017,4 hPa 0,0 l/m 0,3 km/h (0 Bft) O-SO 109 0 min 0,000 mm 0,0 UV-I 0 W/m 16,0 C 19,2 C 1,6 km/h (1 Bft) 97,87 %
19.07.2016 22:50 19,0 C 82 % 1017,4 hPa 0,0 l/m 1,1 km/h (1 Bft) O-SO 109 0 min 0,000 mm 0,0 UV-I 0 W/m 15,9 C 19,0 C 3,2 km/h (1 Bft) 97,87 %
19.07.2016 22:52 18,9 C 82 % 1017,4 hPa 0,0 l/m 1,2 km/h (1 Bft) O-SO 109 0 min 0,000 mm 0,0 UV-I 0 W/m 15,8 C 18,9 C 3,2 km/h (1 Bft) 100,00 %
19.07.2016 22:54 18,9 C 82 % 1017,4 hPa 0,0 l/m 0,3 km/h (0 Bft) O-SO 109 0 min 0,000 mm 0,0 UV-I 0 W/m 15,8 C 18,9 C 1,6 km/h (1 Bft) 97,87 %
19.07.2016 22:56 18,8 C 83 % 1017,4 hPa 0,0 l/m 0,0 km/h (0 Bft) O-SO 109 0 min 0,000 mm 0,0 UV-I 0 W/m 15,8 C 18,8 C 0,0 km/h (0 Bft) 100,00 %
19.07.2016 22:58 18,9 C 83 % 1017,4 hPa 0,0 l/m 0,0 km/h (0 Bft) O-SO 109 0 min 0,000 mm 0,0 UV-I 0 W/m 15,9 C 18,9 C 0,0 km/h (0 Bft) 100,00 %
19.07.2016 23:00 18,9 C 84 % 1017,4 hPa 0,0 l/m 0,0 km/h (0 Bft) O-SO 109 0 min 0,000 mm 0,0 UV-I 0 W/m 16,1 C 18,9 C 0,0 km/h (0 Bft) 100,00 %
19.07.2016 23:02 18,9 C 83 % 1017,4 hPa 0,0 l/m 0,1 km/h (0 Bft) O-SO 109 0 min 0,000 mm 0,0 UV-I 0 W/m 15,9 C 18,9 C 1,6 km/h (1 Bft) 97,87 %
19.07.2016 23:04 18,9 C 83 % 1017,4 hPa 0,0 l/m 1,3 km/h (1 Bft) O-SO 109 0 min 0,000 mm 0,0 UV-I 0 W/m 15,9 C 18,9 C 1,6 km/h (1 Bft) 100,00 %
19.07.2016 23:06 18,9 C 83 % 1017,4 hPa 0,0 l/m 1,9 km/h (1 Bft) O-SO 109 0 min 0,000 mm 0,0 UV-I 0 W/m 15,9 C 18,9 C 3,2 km/h (1 Bft) 100,00 %
19.07.2016 23:08 18,8 C 84 % 1017,4 hPa 0,0 l/m 2,3 km/h (1 Bft) O-SO 109 0 min 0,000 mm 0,0 UV-I 0 W/m 16,0 C 18,8 C 3,2 km/h (1 Bft) 95,74 %
19.07.2016 23:10 18,8 C 84 % 1017,4 hPa 0,0 l/m 3,2 km/h (1 Bft) SO 132 0 min 0,000 mm 0,0 UV-I 0 W/m 16,0 C 18,8 C 4,8 km/h (1 Bft) 97,87 %
19.07.2016 23:12 18,6 C 84 % 1017,4 hPa 0,0 l/m 2,4 km/h (1 Bft) SO 132 0 min 0,000 mm 0,0 UV-I 0 W/m 15,8 C 18,6 C 4,8 km/h (1 Bft) 100,00 %
19.07.2016 23:14 18,6 C 85 % 1017,4 hPa 0,0 l/m 2,9 km/h (1 Bft) SO 132 0 min 0,000 mm 0,0 UV-I 0 W/m 16,0 C 18,6 C 3,2 km/h (1 Bft) 97,14 %
19.07.2016 23:16 18,6 C 85 % 1017,4 hPa 0,0 l/m 2,4 km/h (1 Bft) SO 132 0 min 0,000 mm 0,0 UV-I 0 W/m 16,0 C 18,6 C 3,2 km/h (1 Bft) 100,00 %
19.07.2016 23:18 18,5 C 84 % 1017,4 hPa 0,0 l/m 1,2 km/h (1 Bft) SO 132 0 min 0,000 mm 0,0 UV-I 0 W/m 15,7 C 18,5 C 3,2 km/h (1 Bft) 95,74 %
19.07.2016 23:20 18,6 C 85 % 1017,4 hPa 0,0 l/m 0,1 km/h (0 Bft) SO 132 0 min 0,000 mm 0,0 UV-I 0 W/m 16,0 C 18,6 C 1,6 km/h (1 Bft) 100,00 %
19.07.2016 23:22 18,5 C 85 % 1017,4 hPa 0,0 l/m 0,0 km/h (0 Bft) SO 132 0 min 0,000 mm 0,0 UV-I 0 W/m 15,9 C 18,5 C 0,0 km/h (0 Bft) 100,00 %
19.07.2016 23:24 18,5 C 85 % 1017,4 hPa 0,0 l/m 0,0 km/h (0 Bft) SO 132 0 min 0,000 mm 0,0 UV-I 0 W/m 15,9 C 18,5 C 0,0 km/h (0 Bft) 100,00 %
19.07.2016 23:26 18,4 C 85 % 1017,4 hPa 0,0 l/m 0,1 km/h (0 Bft) SO 132 0 min 0,000 mm 0,0 UV-I 0 W/m 15,8 C 18,4 C 1,6 km/h (1 Bft) 100,00 %
19.07.2016 23:28 18,5 C 85 % 1017,5 hPa 0,0 l/m 1,2 km/h (1 Bft) SO 132 0 min 0,000 mm 0,0 UV-I 0 W/m 15,9 C 18,5 C 3,2 km/h (1 Bft) 95,74 %
19.07.2016 23:30 18,5 C 85 % 1017,5 hPa 0,0 l/m 2,0 km/h (1 Bft) SO 132 0 min 0,000 mm 0,0 UV-I 0 W/m 15,9 C 18,5 C 3,2 km/h (1 Bft) 100,00 %
19.07.2016 23:32 18,5 C 85 % 1017,5 hPa 0,0 l/m 1,8 km/h (1 Bft) SO 132 0 min 0,000 mm 0,0 UV-I 0 W/m 15,9 C 18,5 C 3,2 km/h (1 Bft) 100,00 %
19.07.2016 23:34 18,5 C 85 % 1017,5 hPa 0,0 l/m 2,2 km/h (1 Bft) SO 132 0 min 0,000 mm 0,0 UV-I 0 W/m 15,9 C 18,5 C 3,2 km/h (1 Bft) 100,00 %
19.07.2016 23:36 18,5 C 85 % 1017,5 hPa 0,0 l/m 1,7 km/h (1 Bft) SO 132 0 min 0,000 mm 0,0 UV-I 0 W/m 15,9 C 18,5 C 3,2 km/h (1 Bft) 100,00 %
19.07.2016 23:38 18,5 C 85 % 1017,4 hPa 0,0 l/m 0,2 km/h (0 Bft) SO 132 0 min 0,000 mm 0,0 UV-I 0 W/m 15,9 C 18,5 C 1,6 km/h (1 Bft) 100,00 %
19.07.2016 23:40 18,4 C 85 % 1017,5 hPa 0,0 l/m 0,1 km/h (0 Bft) SO 132 0 min 0,000 mm 0,0 UV-I 0 W/m 15,8 C 18,4 C 1,6 km/h (1 Bft) 100,00 %
19.07.2016 23:42 18,3 C 85 % 1017,5 hPa 0,0 l/m 0,8 km/h (0 Bft) SO 132 0 min 0,000 mm 0,0 UV-I 0 W/m 15,7 C 18,3 C 1,6 km/h (1 Bft) 97,87 %
19.07.2016 23:44 18,3 C 86 % 1017,5 hPa 0,0 l/m 1,0 km/h (0 Bft) SO 132 0 min 0,000 mm 0,0 UV-I 0 W/m 15,9 C 18,3 C 1,6 km/h (1 Bft) 100,00 %
19.07.2016 23:46 18,4 C 86 % 1017,5 hPa 0,0 l/m 0,0 km/h (0 Bft) SO 132 0 min 0,000 mm 0,0 UV-I 0 W/m 16,0 C 18,4 C 0,0 km/h (0 Bft) 95,74 %
19.07.2016 23:48 18,5 C 86 % 1017,5 hPa 0,0 l/m 0,0 km/h (0 Bft) SO 132 0 min 0,000 mm 0,0 UV-I 0 W/m 16,1 C 18,5 C 1,6 km/h (1 Bft) 95,74 %
19.07.2016 23:50 18,6 C 85 % 1017,5 hPa 0,0 l/m 0,0 km/h (0 Bft) SO 132 0 min 0,000 mm 0,0 UV-I 0 W/m 16,0 C 18,6 C 0,0 km/h (0 Bft) 97,87 %
19.07.2016 23:52 18,7 C 85 % 1017,5 hPa 0,0 l/m 0,9 km/h (0 Bft) SO 132 0 min 0,000 mm 0,0 UV-I 0 W/m 16,1 C 18,7 C 3,2 km/h (1 Bft) 97,87 %
19.07.2016 23:54 18,6 C 84 % 1017,5 hPa 0,0 l/m 2,3 km/h (1 Bft) SO 132 0 min 0,000 mm 0,0 UV-I 0 W/m 15,8 C 18,6 C 3,2 km/h (1 Bft) 95,74 %
19.07.2016 23:56 18,4 C 85 % 1017,5 hPa 0,0 l/m 0,9 km/h (0 Bft) SO 132 0 min 0,000 mm 0,0 UV-I 0 W/m 15,8 C 18,4 C 1,6 km/h (1 Bft) 93,62 %
19.07.2016 23:58 18,3 C 85 % 1017,6 hPa 0,0 l/m 0,0 km/h (0 Bft) SO 132 0 min 0,000 mm 0,0 UV-I 0 W/m 15,7 C 18,3 C 0,0 km/h (0 Bft) 97,87 %
_ Min-Zeit 05:56 16:58 19:40 - 01:38 - - - - - - 18:12 05:56 01:38 08:38
Minimum _ 14,1 C 38 % 1017,2 hPa - 0,0 km/h (0 Bft) - - - - - - 12,2 C 14,1 C 0,0 km/h (0 Bft) 89,36 %
_ Max-Zeit 16:18 06:16 07:34 00:00 15:40 - - 05:36 14:00 13:12 13:14 09:28 16:18 15:06 00:00
Maximum _ 28,6 C 97 % 1020,5 hPa 0,0 l/m 13,6 km/h
W-SW (3 Bft)
- - 2 min 0,610 mm 7,3 UV-I 922 W/m 17,9 C 28,6 C 25,7 km/h
S-SO (4 Bft)
100,00 %
Durchschnitt _ 21,7 C 71 % 1019,1 hPa #0,0 l/m 3,0 km/h (1 Bft) S - #12:56 h #5,207 mm 4,0 UV-I 486 W/m 15,2 C 21,7 C 5,9 km/h (2 Bft) 98,34 %